GFSGBSN_prec_radar_021.txt.gz
Reflectivity
-20 -20 -20 -20 -20 -20 -20 -20 -6 8 11 4 13 13 14 15 15 14 14 -20 2 15 12 8 11 13 -18 -20 -20 -20 -20 -20 -20 -20 -20 -20 -20 -20 -20 -17 -8 -20 -5 -3 -20 -20 -20
-20 -20 -20 -20 -20 -20 -20 -20 -20 9 -14 10 13 13 14 12 10 6 1 -12 8 15 13 12 13 14 -20 -20 -20 -20 -20 -20 -20 -20 -20 -20 -20 6 -11 -20 -20 -20 -20 -20 -20 -20 -20
-20 -20 -20 -20 -20 -20 -20 -20 -20 1 9 6 9 12 12 1 -5 -19 -20 -20 15 13 11 12 14 -19 -20 -20 -20 -20 -20 -20 -20 -20 -20 -20 -20 -20 -20 -20 -20 -20 -20 -20 -20 -20 -20
-20 -20 -20 -20 -20 -20 -20 -20 -20 -20 -19 7 13 9 -20 -20 -20 -20 -20 -1 12 9 13 14 15 -20 -20 -20 -20 -20 -20 -20 -20 -20 -20 -20 -20 -20 -20 -20 -20 -20 -20 -20 -20 -20 -20
-20 -20 -20 -20 -20 -20 -20 -20 -20 -20 -20 -20 -20 -20 -20 -20 -20 -20 -18 9 -8 -19 11 13 -20 -20 -20 -20 -20 -20 -20 -2 -20 -20 -20 -20 -20 -20 -20 -20 -20 -20 -20 -20 -20 -20 -20
-20 -20 -20 -20 -20 -20 -20 -20 -20 -20 -20 -20 -20 -20 -20 -20 -20 -20 -20 -8 -12 10 -1 -20 -20 -20 -20 -20 -20 -20 -20 -20 -20 -20 -20 -20 -20 -20 -20 -20 -20 -20 -20 -20 -20 -20 -20
-20 -20 -20 -20 -20 -20 -20 -20 -20 -20 -20 -20 -20 -20 -20 -20 -20 -20 -20 -20 -20 -20 -20 -20 -20 -20 -20 -20 -20 -20 -20 -20 -20 -20 -20 -20 -20 -20 -20 -20 -20 -20 -20 -20 -20 -20 -20
-20 -20 -20 -20 -20 -20 -20 -20 -20 -20 -20 -20 -20 -20 -20 -20 -20 -20 -20 -16 -20 -20 -20 -20 -20 -20 -20 -20 -20 -20 -20 -20 -20 -20 -20 -20 -20 -20 -20 -20 -20 -20 -20 -20 -20 -20 -20
-20 -20 -20 -20 -20 -20 -20 -20 -20 -20 -20 -20 -20 -20 -20 -20 -20 -20 -20 -20 -20 -20 -20 -20 -20 -20 -20 -20 -20 -20 -20 -20 -20 -20 -20 -20 -20 -20 -20 -20 -20 -20 -20 -20 -20 -20 -20
-20 -20 -20 -20 -20 -20 -20 -20 -20 -20 -20 -20 -20 -20 -20 -20 -20 -20 -20 -20 -20 -20 -20 -20 -20 -20 -20 -20 -20 -20 -20 -20 -20 -20 -20 -20 -20 -20 -20 -20 -20 -20 -20 -20 -20 -20 -20
-20 -20 -20 -20 -20 -20 -20 -20 -20 -20 -20 -20 -20 -20 -20 -20 -20 -20 -20 -20 -20 -20 -20 -20 -20 -20 -20 -20 -20 -20 -20 -20 -20 -20 -20 -20 -20 -20 -20 -20 -20 -20 -20 -20 -20 -20 -20
-20 -20 -20 -20 -20 -20 -20 -20 -20 -20 -20 -20 -20 -20 -20 -20 -20 -20 -20 -20 -20 -20 -20 -20 -20 -20 -20 -20 -20 -20 -20 -20 -20 -20 -20 -20 -20 -20 -20 -20 -20 -20 -20 -20 -20 -20 -20
-20 -20 -20 -20 -20 -20 -20 -20 -20 -20 -20 -20 -20 -20 -20 -20 -20 -20 -20 -20 -20 -20 -20 -20 -20 -20 -20 -20 -20 -20 -20 -20 -20 -20 -20 -20 -20 -20 -20 -20 -20 -20 -20 -20 -20 -20 -20
-20 -20 -20 -20 -20 -20 -20 -20 -20 -20 -20 -20 -20 -20 -20 -20 -20 -20 -20 -20 -20 -20 -20 -20 -20 -20 -20 -20 -20 -20 -20 -20 -20 -20 -20 -20 -20 -20 -20 -20 -20 -20 -20 -20 -20 -20 -20
-20 -20 -20 -20 -20 -20 -20 -18 -4 -20 -20 -20 -20 -20 -20 -20 -20 -20 -20 -20 -20 -20 -20 -20 -20 -20 -20 -20 -20 -20 -20 -20 -20 -20 -20 -20 -20 -20 -20 -20 -20 -20 -20 -20 -20 -20 -20
-20 -20 -20 -20 -20 -20 -20 -10 -6 -20 -20 -20 -20 -20 -20 -20 -20 -20 -20 -20 -20 -20 -20 -20 -20 -20 -20 -20 -20 -20 -20 -20 -20 -20 -20 -20 -20 -20 -20 -20 -20 -20 -20 -20 -20 -20 -20
-20 -20 -20 -20 -20 -9 -20 10 -14 -20 -20 -20 -20 -20 -20 -20 -20 -20 -20 -20 -20 -20 -20 -20 -20 -20 -20 -20 -20 -20 -20 -20 -20 -20 -20 -20 -20 -20 -20 -20 -20 -20 -20 -20 -20 -20 -20
-20 -20 -20 -20 -20 3 2 -20 -20 -20 -20 -20 -20 -20 -20 -20 -20 -20 -20 -20 -20 -20 -20 -20 -20 -20 -20 -20 -20 -20 -20 -20 -20 -20 -20 -20 -20 -20 -20 -20 -20 -20 -20 -20 -20 -20 -20
-20 -20 -20 -20 7 -12 3 -20 -20 -20 -20 -20 -20 -20 -20 -20 -20 -20 -20 -20 -20 -20 -20 -20 -20 -20 -20 -20 -20 -20 -20 -20 -20 -20 -20 -20 -20 -20 -20 -20 -20 -20 -20 -20 -20 -20 -20
-20 -20 -20 -12 9 6 1 -18 -20 -20 -20 -20 -20 -20 -20 -20 -20 -20 -20 -20 -20 -20 -20 -20 -20 -20 -20 -20 -20 -20 -20 -20 -20 -20 -20 -20 -20 -20 -20 -20 -20 -20 -20 -20 -20 -20 -20
-20 -20 -20 5 9 -4 -8 -20 -20 -20 -20 -20 -20 -20 -20 -20 -20 -20 -20 -20 -20 -20 -20 -20 -20 -20 -20 -20 -20 -20 -20 -20 -20 -20 -20 -20 -20 -20 -20 -20 -20 -20 -20 -20 -20 -20 -20
-20 -20 2 10 4 -20 -20 -20 -20 -20 -20 -20 -20 -20 -20 -20 -20 -20 -20 -20 -20 -20 -20 -20 -20 -20 -20 -20 -20 -20 -20 -20 -20 -20 -20 -20 -20 -20 -20 -20 -20 -20 -20 -20 -20 -20 -20
-20 -12 10 9 1 -20 -20 -20 -20 -20 -20 -20 -20 -20 -20 -20 -20 -20 -20 -20 -20 -20 -20 -20 -20 -20 -20 -20 -20 -20 -20 -20 -20 -20 -20 -20 -20 -20 -20 -20 -20 -20 -20 -20 -20 -20 -20
1 2 5 -0 -20 -20 -20 -20 -20 -20 -20 -20 -20 -20 -20 -20 -20 -20 -20 -20 -20 -20 -20 -20 -20 -20 -20 -20 -20 -20 -20 -20 -20 -20 -20 -20 -20 -20 -20 -20 -20 -20 -20 -20 -20 -20 -20
-2 -3 8 -19 -20 -20 -20 -20 -20 -20 -20 -20 -20 -20 -20 -20 -20 -20 -20 -20 -20 -20 -20 -20 -20 -20 -20 -20 -20 -20 -20 -20 -20 -20 -20 -20 -20 -20 -20 -20 -20 -20 -20 -20 -20 -20 -20
5 -20 -20 -20 -20 -20 -20 -20 -20 -20 -19 24 -20 -20 -20 -20 -20 -20 -20 -20 -20 -20 -20 -20 -20 -20 -20 -20 -20 -20 -20 -20 -20 -20 -20 -20 -20 -20 -20 -20 -20 -20 -20 -20 -20 -20 -20
-20 -20 -20 -20 -20 -20 -20 -20 -20 -20 -20 5 -20 -20 -20 -20 -20 -20 -20 -20 -20 -20 -20 -20 -20 -20 -20 -20 -20 -20 -20 -20 -20 -20 -20 -20 -20 -20 -20 -20 -20 -20 -20 -20 -20 -20 -20
-20 -15 -20 -20 -20 -20 -20 -20 -20 -20 -15 -14 -20 -20 -20 -20 -20 -20 -20 -20 -20 -20 -20 -20 -20 -20 -20 -20 -20 -20 -20 -20 -20 -20 -20 -20 -20 -20 -20 -20 -20 -20 -20 -20 -20 -20 -20
-4 -20 -20 -20 -20 -20 8 12 4 -20 -20 -20 -20 -20 -20 -20 -20 -20 -20 -20 -20 -20 -20 -20 -20 -20 -20 -20 -20 -20 -20 -20 -20 -20 -20 -20 -20 -20 -20 -20 -20 -20 -20 -20 -20 -20 -20

GFSGBSN_prec_radar_024.txt.gz
Reflectivity
-20 -20 -20 -20 -20 -20 -20 -20 -20 -20 -8 -4 13 13 6 15 16 6 12 13 16 13 10 6 15 13 -17 -20 -20 -20 -20 -20 -20 -20 -20 -20 -20 -20 -20 -20 -20 -20 -9 -7 2 -12 7
-20 -20 -20 -20 -20 -20 -20 -20 -20 -20 -9 13 13 14 14 11 12 12 16 11 13 7 10 13 11 16 -19 -20 -20 -20 -20 -20 -20 -20 -20 -20 -20 -20 -20 -20 -20 -20 -9 -11 -9 -9 -20
-20 -20 -20 -20 -20 -20 -20 -20 -20 -20 -19 10 13 13 12 7 -20 11 16 -18 13 13 11 14 14 -17 -20 -20 -20 -20 -20 -20 -20 -20 -20 -20 -20 -20 -20 -19 -18 -20 -11 -16 -20 -20 -20
-20 -20 -20 -20 -20 -20 -20 -20 -20 -20 -20 -17 8 11 6 -6 6 2 -20 5 9 8 13 15 17 -20 -20 -20 -20 -20 -20 -20 -20 -20 -20 -20 -19 -19 -19 -20 -20 -20 -20 -20 -20 -20 -20
-20 -20 -20 -20 -20 -20 -20 -20 -20 -20 -20 -20 -19 -20 -20 -20 -20 -20 6 10 11 14 15 16 -12 -20 -20 -20 -20 -20 -20 -20 -20 -20 -20 -20 -20 -17 -17 -20 -20 -20 -20 -20 -20 -20 -20
-20 -20 -20 -20 -20 -20 -20 -20 -20 -20 -20 -20 -20 -20 -20 -20 -20 -20 -17 11 7 13 4 -15 -20 -20 -20 -20 -20 -20 -20 -20 -20 -20 -20 -20 -20 -20 -20 -20 -20 -20 -20 -20 -20 -20 -20
-20 -20 -20 -20 -20 -20 -20 -20 -20 -20 -20 -20 -20 -20 -20 -20 -20 -20 6 -18 -20 -20 -20 -20 -20 -20 -20 -20 -20 -20 -20 -20 1 -20 -20 -20 -20 -20 -20 -20 -20 -20 -20 -20 -20 -20 -20
-20 -20 -20 -20 -20 -20 -20 -20 -20 -20 -20 -20 -20 -20 -20 -20 -20 -20 -20 -20 -20 -20 -20 -20 -20 -20 -20 -20 -20 -20 -20 -20 -20 -20 -20 -20 -20 -20 -20 -20 -20 -20 -20 -20 -20 -20 -20
-20 -20 -20 -20 -20 -20 -20 -20 -20 -20 -20 -20 -20 -20 -20 -20 -20 -20 -20 -8 -20 -20 -20 -20 -20 -20 -20 -20 -20 -20 -20 -20 -20 -20 -20 -20 -20 -20 -20 -20 -20 -20 -20 -20 -20 -20 -20
-20 -20 -20 -20 -20 -20 -20 -20 -20 -20 -20 -20 -20 -20 -20 -20 -20 -20 -20 -19 -20 -20 -20 -20 -20 -20 -20 -20 -20 -20 -20 -20 -20 -20 -20 -20 -20 -20 -20 -20 -20 -20 -20 -20 -20 -20 -20
-17 -20 -20 -20 -20 -20 -20 -20 -20 -20 -20 -20 -20 -20 -20 -20 -20 -20 -20 -20 -20 -20 -20 -20 -20 -20 -20 -20 -20 -20 -20 -20 -20 -20 -20 -20 -20 -20 -20 -20 -20 -20 -20 -20 -20 -20 -20
23 -20 -20 -20 -20 -20 -20 -20 -20 -20 -20 -20 -20 -20 -20 -20 -20 -20 -20 -20 -20 -20 -20 -20 -20 -20 -20 -20 -20 -20 -20 -20 -20 -20 -20 -20 -20 -20 -20 -20 -20 -20 -20 -20 -20 -20 -20
22 -10 -20 -20 -20 -20 -20 -20 -20 -20 -20 -20 -20 -20 -20 -20 -20 -20 -20 -20 -20 -20 -20 -20 -20 -20 -20 -20 -20 -20 -20 -20 -20 -20 -20 -20 -20 -20 -20 -20 -20 -20 -20 -20 -20 -20 -20
34 24 -20 -20 -20 -20 -20 -20 -20 -20 -20 -20 -20 -20 -20 -20 -20 -20 -20 -20 -20 -20 -20 -20 -20 -20 -20 -20 -20 -20 -20 -20 -20 -20 -20 -20 -20 -20 -20 -20 -20 -20 -20 -20 -20 -20 -20
30 22 -20 -20 -20 -20 -20 -20 -20 -20 -20 -20 -20 -20 -20 -20 -20 -20 -20 -20 -20 -20 -20 -20 -20 -20 -20 -20 -20 -20 -20 -20 -20 -20 -20 -20 -20 -20 -20 -20 -20 -20 -20 -20 -20 -20 -20
31 27 -20 -20 -20 -20 -20 -20 4 -8 -20 -20 -20 -20 -20 -20 -20 -20 -20 -20 -20 -20 -20 -20 -20 -20 -20 -20 -20 -20 -20 -20 -20 -20 -20 -20 -20 -20 -20 -20 -20 -20 -20 -20 -20 -20 -20
27 18 -20 -20 -20 -20 -20 -2 7 -20 -20 -20 -20 -20 -20 -20 -20 -20 -20 -20 -20 -20 -20 -20 -20 -20 -20 -20 -20 -20 -20 -20 -20 -20 -20 -20 -20 -20 -20 -20 -20 -20 -20 -20 -20 -20 -20
29 9 -20 -20 -20 -20 -20 10 -4 -20 -20 -20 -20 -20 -20 -20 -20 -20 -20 -20 -20 -20 -20 -20 -20 -20 -20 -20 -20 -20 -20 -20 -20 -20 -20 -20 -20 -20 -20 -20 -20 -20 -20 -20 -20 -20 -20
40 -15 -20 -20 -20 -19 10 5 -20 -20 -20 -20 -20 -20 -20 -20 -20 -20 -20 -20 -20 -20 -20 -20 -20 -20 -20 -20 -20 -20 -20 -20 -20 -20 -20 -20 -20 -20 -20 -20 -20 -20 -20 -20 -20 -20 -20
34 -20 -20 -20 -20 5 10 -8 -20 -20 -20 -20 -20 -20 -20 -20 -20 -20 -20 -20 -20 -20 -20 -20 -20 -20 -20 -20 -20 -20 -20 -20 -20 -20 -20 -20 -20 -20 -20 -20 -20 -20 -20 -20 -20 -20 -20
24 -20 -20 -20 -20 5 10 -11 -20 -20 -20 -20 -20 -20 -20 -20 -20 -20 -20 -20 -20 -20 -20 -20 -20 -20 -20 -20 -20 -20 -20 -20 -20 -20 -20 -20 -20 -20 -20 -20 -20 -20 -20 -20 -20 -20 -20
-19 -20 -20 -16 -5 10 6 -20 -20 -20 -20 -20 -20 -20 -20 -20 -20 -20 -20 -20 -20 -20 -20 -20 -20 -20 -20 -20 -20 -20 -20 -20 -20 -20 -20 -20 -20 -20 -20 -20 -20 -20 -20 -20 -20 -20 -20
-20 -19 7 -1 9 1 -20 -20 -20 -20 -20 -20 -20 -20 -20 -20 -20 -20 -20 -20 -20 -20 -20 -20 -20 -20 -20 -20 -20 -20 -20 -20 -20 -20 -20 -20 -20 -20 -20 -20 -20 -20 -20 -20 -20 -20 -20
-20 9 6 3 1 -20 -20 -20 -20 -20 -20 -20 -20 -20 -20 -20 -20 -20 -20 -20 -20 -20 -20 -20 -20 -20 -20 -20 -20 -20 -20 -20 -20 -20 -20 -20 -20 -20 -20 -20 -20 -20 -20 -20 -20 -20 -20
-18 4 7 1 -20 -20 -20 -20 -20 -20 -20 -20 -20 -20 -20 -20 -20 -20 -20 -20 -20 -20 -20 -20 -20 -20 -20 -20 -20 -20 -20 -20 -20 -20 -20 -20 -20 -20 -20 -20 -20 -20 -20 -20 -20 -20 -20
0 10 2 10 -20 -20 -20 -20 -20 -20 -20 -20 -20 -20 -20 -20 -20 -20 -20 -20 -20 -20 -20 -20 -20 -20 -20 -20 -20 -20 -20 -20 -20 -20 -20 -20 -20 -20 -20 -20 -20 -20 -20 -20 -20 -20 -20
4 -20 -20 -9 -7 -20 -20 -20 -20 -20 -20 -20 2 -20 -20 -20 -20 -20 -20 -20 -20 -20 -20 -20 -20 -20 -20 -20 -20 -20 -20 -20 -20 -20 -20 -20 -20 -20 -20 -20 -20 -20 -20 -20 -20 -20 -20
-20 -20 -20 -1 -20 -19 -3 -11 -20 -20 -20 -20 -3 -20 -20 -20 -20 -20 -20 -20 -20 -20 -20 -20 -20 -20 -20 -20 -20 -20 -20 -20 -20 -20 -20 -20 -20 -20 -20 -20 -20 -20 -20 -20 -20 -20 -20
-20 -20 -20 -20 9 7 9 8 -13 -20 -20 6 -20 -20 -20 -20 -20 -20 -20 -20 -20 -20 -20 -20 -20 -20 -20 -20 -20 -20 -20 -20 -20 -20 -20 -20 -20 -20 -20 -20 -20 -20 -20 -20 -20 -20 -20

GFSGBSN_prec_radar_027.txt.gz
Reflectivity
-20 -20 -20 -20 -20 -20 -20 -20 -20 -20 -20 -20 1 12 13 14 16 -4 13 -10 3 -20 2 14 14 13 -18 -20 -20 -20 -20 -20 -20 -20 -20 -20 -20 -20 -20 -7 -17 -20 -20 -20 6 -12 2
-20 -20 -20 -20 -20 -20 -20 -20 -20 -20 -20 -20 -20 11 4 9 15 14 14 -0 8 -2 2 14 15 15 -20 -20 -20 -20 -20 -20 -20 -20 -20 -20 -20 -17 -19 -20 -20 -20 -20 -16 -20 1 -20
-20 -20 -20 -20 -20 -20 -20 -20 -20 -20 -20 -20 -20 12 -20 14 13 12 12 11 13 13 6 13 16 -19 -20 -20 -20 -20 -20 -20 -20 -20 -20 -20 -20 -20 -20 -20 -20 -19 -20 -20 1 -20 -20
-3 -20 -20 -20 -20 -20 -20 -20 -20 -20 -20 -20 -20 11 4 15 12 14 13 15 13 12 13 13 14 -20 -20 -20 -20 -20 -20 -20 -20 -20 -20 -20 -20 -20 -20 -20 -20 -20 -19 -17 -20 -20 -20
14 -20 -20 -20 -20 -20 -20 -20 -20 -20 -20 -20 -20 -20 -20 -20 -20 14 15 15 6 -1 12 13 -17 -20 -20 -20 -20 -20 -20 -20 -20 -20 -20 -20 -20 -20 -20 -20 -13 -10 -20 -20 -20 -20 -20
15 7 -20 -20 -20 -20 -20 -20 -20 -20 -20 -20 -20 -20 -20 -20 -20 -20 13 6 5 10 3 0 -20 -20 -20 -20 -20 -20 -20 -20 -3 -20 -19 -20 -20 -20 -20 -20 -20 -20 -20 -20 -20 -20 -20
-20 14 -20 -20 -20 -20 -20 -20 -20 -20 -20 -20 -20 -20 -20 -20 -20 -20 -13 -20 -20 -20 -20 -20 -20 -20 -20 -20 -20 -20 -20 -12 6 -20 1 0 -20 -7 -20 -20 -20 -20 -20 -20 -20 -20 -20
1 9 -12 -20 -20 -20 -20 -20 -20 -20 -20 -20 -20 -20 -20 -20 -20 11 -20 -20 -11 -20 -20 -20 -20 -20 -20 -20 -20 -20 -20 -18 -18 -7 -20 -20 -20 -20 -20 -20 -20 -20 -20 -20 -20 -20 -20
-20 9 15 -20 -20 -20 -20 -20 -20 -20 -20 -20 -20 -20 -20 -20 -18 5 -20 -20 -20 -20 -20 -20 -20 -20 -20 -20 -20 -20 -20 -20 -20 17 -20 -20 -20 -20 -20 -20 -20 -20 -20 -20 -20 -20 -20
-20 -20 -8 -19 -20 -20 -20 -20 -20 -20 -20 -20 -20 -20 -20 -20 -16 -20 -20 -20 -19 -20 -20 -20 -20 -20 -20 -20 -20 -20 -20 -20 -20 -12 -20 -20 -20 -20 -20 -20 -20 -20 -20 -20 -20 -20 -20
-20 -16 11 10 -20 -20 -20 -20 -20 -20 -20 -20 -20 -20 -20 -20 -20 -20 -20 -20 -20 -20 -20 -20 -20 -20 -20 -20 -20 -20 -20 -20 -20 -20 -20 -20 -20 -20 -20 -20 -20 -20 -20 -20 -20 -20 -20
-6 -20 18 18 -20 -20 -20 -20 -20 -20 -20 -20 -20 -20 -20 -20 -20 -20 -20 -20 -20 -20 -20 -20 -20 -20 -20 -20 -20 -20 -20 -20 -20 -20 -20 -20 -20 -20 -20 -20 -20 -20 -20 -20 -20 -20 -20
13 -15 13 14 -20 -20 -20 -20 -20 -20 -20 -20 -20 -20 -20 -20 -20 -20 -20 -20 -20 -20 -20 -20 -20 -20 -20 -20 -20 -20 -20 -20 -20 -20 -20 -20 -20 -20 -20 -20 -20 -20 -20 -20 -20 -20 -20
20 -17 20 10 -19 -20 -20 -20 -20 -20 -20 -20 -20 -20 -20 -20 -20 -20 -20 -20 -20 -20 -20 -20 -20 -20 -20 -20 -20 -20 -20 -20 -20 -20 -20 -20 -20 -20 -20 -20 -20 -20 -20 -20 -20 -20 -20
16 -20 6 21 -17 -20 -20 -20 -20 -20 -20 -20 -20 -20 -20 -20 -20 -20 -20 -20 -20 -20 -20 -20 -20 -20 -20 -20 -20 -20 -20 -20 -20 -20 -20 -20 -20 -20 -20 -20 -20 -20 -20 -20 -20 -20 -20
-20 -2 22 30 16 -20 -20 -20 -20 -17 -20 -20 -20 -20 -20 -20 -20 -20 -20 -20 -20 -20 -20 -20 -20 -20 -20 -20 -20 -20 -20 -20 -20 -20 -20 -20 -20 -20 -20 -20 -20 -20 -20 -20 -20 -20 -20
14 22 27 28 23 -20 -20 -20 -20 11 -11 -20 -20 -20 -20 -20 -20 -20 -20 -20 -20 -20 -20 -20 -20 -20 -20 -20 -20 -20 -20 -20 -20 -20 -20 -20 -20 -20 -20 -20 -20 -20 -20 -20 -20 -20 -20
4 18 28 37 17 -9 -20 -20 -1 14 -20 -20 -20 -20 -20 -20 -20 -20 -20 -20 -20 -20 -20 -20 -20 -20 -20 -20 -20 -20 -20 -20 -20 -20 -20 -20 -20 -20 -20 -20 -20 -20 -20 -20 -20 -20 -20
23 23 39 24 13 -5 -20 -20 12 11 -20 -20 -20 -20 -20 -20 -20 -20 -20 -20 -20 -20 -20 -20 -20 -20 -20 -20 -20 -20 -20 -20 -20 -20 -20 -20 -20 -20 -20 -20 -20 -20 -20 -20 -20 -20 -20
20 34 33 25 14 -20 -20 7 9 -18 -20 -20 -20 -20 -20 -20 -20 -20 -20 -20 -20 -20 -20 -20 -20 -20 -20 -20 -20 -20 -20 -20 -20 -20 -20 -20 -20 -20 -20 -20 -20 -20 -20 -20 -20 -20 -20
28 36 25 21 9 -20 -11 9 -19 -20 -20 -20 -20 -20 -20 -20 -20 -20 -20 -20 -20 -20 -20 -20 -20 -20 -20 -20 -20 -20 -20 -20 -20 -20 -20 -20 -20 -20 -20 -20 -20 -20 -20 -20 -20 -20 -20
40 37 19 23 -20 -20 8 8 -20 -20 -20 -20 -20 -20 -20 -20 -20 -20 -20 -20 -20 -20 -20 -20 -20 -20 -20 -20 -20 -20 -20 -20 -20 -20 -20 -20 -20 -20 -20 -20 -20 -20 -20 -20 -20 -20 -20
36 21 25 -1 -7 -3 7 11 -20 -20 -20 -20 -20 -20 -20 -20 -20 -20 -20 -20 -20 -20 -20 -20 -20 -20 -20 -20 -20 -20 -20 -20 -20 -20 -20 -20 -20 -20 -20 -20 -20 -20 -20 -20 -20 -20 -20
30 26 -1 -20 -20 10 6 -20 -20 -20 -20 -20 -20 -20 -20 -20 -20 -20 -20 -20 -20 -20 -20 -20 -20 -20 -20 -20 -20 -20 -20 -20 -20 -20 -20 -20 -20 -20 -20 -20 -20 -20 -20 -20 -20 -20 -20
26 13 -17 -17 1 -5 -20 -20 -20 -20 -20 -20 -20 -20 -20 -20 -20 -20 -20 -20 -20 -20 -20 -20 -20 -20 -20 -20 -20 -20 -20 -20 -20 -20 -20 -20 -20 -20 -20 -20 -20 -20 -20 -20 -20 -20 -20
10 -17 -20 2 -20 -20 -20 -20 -20 -8 -20 -20 -20 -20 -20 -20 -20 -20 -20 -20 -20 -20 -20 -20 -20 -20 -20 -20 -20 -20 -20 -20 -20 -20 -20 -20 -20 -20 -20 -20 -20 -20 -20 -20 -20 -20 -20
4 -18 -0 -20 -20 -20 -20 -20 -5 -0 -20 -20 -20 -20 -20 -20 -20 -20 -20 -20 -20 -20 -20 -20 -20 -20 -20 -20 -20 -20 -20 -20 -20 -20 -20 -20 -20 -20 -20 -20 -20 -20 -20 -20 -20 -20 -20
-18 -20 -20 -20 -20 -20 -20 -17 -1 -20 -20 -20 -20 -20 -20 -20 -20 -20 -20 -20 -20 -20 -20 -20 -20 -20 -20 -20 -20 -20 -20 -20 -20 -20 -20 -20 -20 -20 -20 -20 -20 -20 -20 -20 -20 -20 -20
-20 -20 -20 5 11 9 -1 -19 -20 -20 -20 -20 -20 20 -20 -20 -20 -20 -20 -20 -20 -20 -20 -20 -20 -20 -20 -20 -20 -20 -20 -20 -20 -20 -20 -20 -20 -20 -20 -20 -20 -20 -20 -20 -20 -20 -20

GFSGBSN_prec_radar_030.txt.gz
Reflectivity
2 -17 -20 -20 -20 -20 -20 -20 -20 -20 -20 -20 -20 -20 -20 8 10 13 10 9 -17 10 9 10 9 -12 -20 -20 -20 -20 -20 -20 -20 -20 -20 -20 -20 -20 -20 -20 -20 -20 -20 -20 -20 8 -10
11 7 -20 -20 -20 -20 -20 -20 -20 -20 -20 -20 -20 -20 -20 -9 4 11 -18 -19 -17 10 13 6 3 -20 -20 -20 -20 -20 -20 -20 -20 -20 -20 -20 -20 -20 -20 -20 -20 -20 -20 -20 4 -10 -18
-5 16 -3 -20 -20 -20 -20 -20 -20 -20 -20 -20 -20 -20 -20 10 11 10 10 3 -14 10 9 -20 -18 -20 -20 -20 -20 -20 -20 -20 -20 -20 -20 -20 -20 -20 -20 9 -18 -20 -20 -20 -5 -20 -20
-4 -0 10 -2 -20 -20 -20 -20 -20 -20 -20 -20 -20 -20 -20 -10 11 -6 -20 -19 -16 11 8 -20 -20 -20 -20 -20 -20 -20 -20 -20 -20 -20 -20 -20 -20 -20 -20 -20 -20 -20 -20 -20 -15 -13 -20
7 13 8 -17 -20 -20 -20 -20 -20 -20 -20 -20 -20 -20 -20 -20 -20 -4 -20 -20 -6 4 4 0 -20 -20 -20 -20 -20 -20 -20 -20 -20 -20 -20 -20 -20 -20 -20 -20 -20 -20 -10 -3 -16 -20 -20
10 -20 5 12 -20 -20 -20 -20 -20 -20 -20 -20 -20 -20 -20 -20 -20 -4 -20 -20 9 -20 -20 -20 -20 -20 -20 -20 -20 -20 -20 -20 2 -20 -20 -11 -1 -20 -10 -19 -19 -6 -20 -20 -20 -20 -20
-20 -20 -20 15 -8 -20 -20 -20 -20 -20 -20 -20 -20 -20 -20 -20 -20 8 -20 -20 -20 -20 -20 -20 -20 -20 -20 -20 -20 -20 -20 -20 -20 -20 -15 -1 -17 -9 -3 -20 -20 -20 -20 -20 -20 -20 -20
-17 -20 -20 7 19 -20 -20 -20 -20 -20 -20 -20 -20 -20 -20 -20 -20 7 -20 -20 -20 -20 -20 -20 -20 -20 -20 -20 -20 -20 -20 -20 -9 -20 1 -19 1 -15 -6 -17 -20 -20 -20 -20 -20 -20 -20
-20 -20 -14 -3 11 -5 -20 -20 -20 -20 -20 -20 -20 -20 -20 -20 -19 2 -20 -20 -20 -20 -20 -20 -20 -20 -20 -20 -20 -20 -20 -20 -0 -9 -20 13 -18 -13 -12 -20 -20 -20 -20 -20 -20 -20 -20
-15 -15 -20 -11 8 17 -20 -20 -20 -20 -20 -20 -20 -20 -20 -20 -20 -20 -20 -20 -20 -20 -20 -20 -20 -20 -20 -20 -20 -20 -20 -20 11 -0 -20 -20 -19 -11 -20 -20 -20 -20 -20 -20 -20 -20 -20
-19 2 -7 -19 1 13 -14 -20 -20 -20 -20 -20 -20 -20 -20 -20 -20 -20 -20 -20 -20 -20 -20 -20 -20 -20 -20 -20 -20 -20 -20 -20 -20 -6 -18 -20 -20 -20 -20 -20 -20 -20 -20 -20 -20 -20 -20
-20 -20 -20 13 -18 -11 -0 -20 -20 -20 -20 -20 -20 -20 -20 -8 -20 -20 -20 -20 -20 -20 -20 -20 -20 -20 -20 -20 -20 -20 -20 -20 -20 -13 -6 -20 -20 -20 -20 -20 -20 -20 -20 -20 -20 -20 -20
-20 13 -10 -20 -20 -15 -7 -20 -20 -20 -20 -20 -20 -20 -12 -20 -20 -20 -20 -20 -20 -20 -20 -20 -20 -20 -20 -20 -20 -20 -20 -20 -20 -20 -20 -20 -20 -20 -20 -20 -20 -20 -20 -20 -20 -20 -20
10 -16 -20 -20 -20 -16 5 -19 -20 -20 -20 -20 -20 -20 -14 -20 -20 -20 -20 -20 -20 -20 -20 -20 -20 -20 -20 -20 -20 -20 -20 -20 -20 -20 -20 -20 -20 -20 -20 -20 -20 -20 -20 -20 -20 -20 -20
20 13 -20 -20 14 -19 -11 -15 -20 -20 -20 -20 -20 -8 -16 -20 -20 -20 -20 -20 -20 -20 -20 -20 -20 -20 -20 -20 -20 -20 -20 -20 -20 -20 -20 -20 -20 -20 -20 -20 -20 -20 -20 -20 -20 -20 -20
-18 18 7 -12 -9 -9 19 5 -20 -20 -20 -20 -20 -20 -20 -20 -20 -20 -20 -20 -20 -20 -20 -20 -20 -20 -20 -20 -20 -20 -20 -20 -20 -20 -20 -20 -20 -20 -20 -20 -20 -20 -20 -20 -20 -20 -20
-20 -14 -4 14 9 -14 8 22 -20 -20 -20 -20 -20 -20 -20 -20 -20 -20 -20 -20 -20 -20 -20 -20 -20 -20 -20 -20 -20 -20 -20 -20 -20 -20 -20 -20 -20 -20 -20 -20 -20 -20 -20 -20 -20 -20 -20
-20 -20 -20 -20 -12 -1 18 28 -20 -20 -20 -20 -20 -20 -20 -20 -20 -20 -20 -20 -20 -20 -20 -20 -20 -20 -20 -20 -20 -20 -20 -20 -20 -20 -20 -20 -20 -20 -20 -20 -20 -20 -20 -20 -20 -20 -20
21 -14 15 10 18 27 28 26 -18 -17 -20 -20 -20 -20 -20 -20 -20 -20 -20 -20 -20 -20 -20 -20 -20 -20 -20 -20 -20 -20 -20 -20 -20 -20 -20 -20 -20 -20 -20 -20 -20 -20 -20 -20 -20 -20 -20
21 -0 -11 8 29 30 30 20 -17 -12 -20 -20 -20 8 -13 -19 -20 -20 -20 -20 -20 -20 -20 -20 -20 -20 -20 -20 -20 -20 -20 -20 -20 -20 -20 -20 -20 -20 -20 -20 -20 -20 -20 -20 -20 -20 -20
-19 7 -1 21 32 40 36 5 -20 -20 -20 -20 -20 -17 -20 -20 -20 -20 -20 -20 -20 -20 -20 -20 -20 -20 -20 -20 -20 -20 -20 -20 -20 -20 -20 -20 -20 -20 -20 -20 -20 -20 -20 -20 -20 -20 -20
-20 -12 15 -8 35 37 31 -19 0 -4 -20 -20 -20 -20 -20 -20 -20 -20 -20 -20 -20 -20 -20 -20 -20 -20 -20 -20 -20 -20 -20 -20 -20 -20 -20 -20 -20 -20 -20 -20 -20 -20 -20 -20 -20 -20 -20
10 12 18 20 39 27 25 -18 -7 10 -20 -20 -20 -20 -20 -20 -20 -20 -20 -20 -20 -20 -20 -20 -20 -20 -20 -20 -20 -20 -20 -20 -20 -20 -20 -20 -20 -20 -20 -20 -20 -20 -20 -20 -20 -20 -20
16 22 25 41 28 24 10 3 1 3 -20 -20 -20 -20 -20 -20 -20 -20 -20 -20 -20 -20 -20 -20 -20 -20 -20 -20 -20 -20 -20 -20 -20 -20 -20 -20 -20 -20 -20 -20 -20 -20 -20 -20 -20 -20 -20
19 28 37 26 17 18 2 -13 -3 -20 -20 -20 -20 -20 -20 23 -20 -20 -20 -20 -20 -20 -20 -20 -20 -20 -20 -20 -20 -20 -20 -20 -20 -20 -20 -20 -20 -20 -14 -20 -20 -20 -20 -20 -20 -20 -20
30 35 23 21 0 10 -1 -20 -20 -20 -20 -20 -20 -20 -20 -20 -20 -20 -20 -20 -20 -20 -20 -20 -20 -20 -20 -20 -20 -20 -20 -20 -20 -20 -20 -20 -20 -20 -20 -17 -20 -20 -20 -20 -20 -20 -20
32 25 33 19 3 -5 -20 -20 -20 -20 -20 -20 -20 -3 -20 -20 -20 -20 -20 -20 -20 -20 -20 -20 -20 -20 -20 -18 20 -20 -20 -20 -20 -20 -20 -20 -20 11 -20 2 -20 -20 -20 -20 -20 -20 -20
28 30 17 8 -5 -20 -20 -20 -20 -20 -20 -17 -20 -20 -20 -20 -20 -20 -20 -20 -20 -20 -20 -20 -20 -20 -20 -10 7 -20 -4 -20 -20 -20 -20 -20 -20 -20 -19 13 -20 -20 -20 -6 -20 -20 -20
21 5 -3 -20 -20 -20 -20 -20 -20 -20 -20 20 -20 -20 -20 -20 -20 -20 -20 -20 -20 -20 -20 -20 -20 -20 -20 -20 -12 -20 9 10 -20 -20 -20 -20 -19 -20 -20 -20 -20 -20 -20 -20 -20 -20 -20

GFSGBSN_prec_radar_033.txt.gz
Reflectivity
-20 -18 9 3 -20 -20 -20 -20 -20 -20 -20 -20 -20 -20 -20 -20 -20 -20 -20 -20 -20 5 -5 -20 -20 -20 -20 -20 -20 -20 -20 -20 -20 -20 -20 -20 -20 -20 -20 -20 -20 -20 -20 -19 -18 -18 -20
-20 -20 -15 3 -4 -20 -20 -20 -20 -20 -20 -20 -20 -20 -20 -20 -20 -20 -20 -20 -18 9 -20 -20 -20 -20 -20 -20 -20 -20 -20 -20 -20 -20 -20 -20 -20 -20 -20 -20 -20 -20 -20 -9 -18 -20 5
-20 -20 -20 -6 -0 -20 -20 -20 -20 -20 -20 -20 -20 -20 -20 -20 -20 -20 -20 -20 -20 -19 -20 -20 -20 -20 -20 -20 -20 -20 -20 -20 -20 -20 -20 -20 -20 -20 -20 -20 -20 -20 -20 -20 3 -18 -20
2 -20 -18 -16 -5 0 -20 -20 -20 -20 -20 -20 -20 -20 -20 -20 -20 -20 -20 -20 -20 -20 -20 -20 -20 -20 -20 -20 -20 -20 -20 -20 -20 -20 -20 -20 -20 -20 -20 -20 -20 -20 -20 -20 -4 -20 -20
-20 -20 -20 -20 -20 -8 -19 -20 -20 -20 -20 -20 -20 -20 -20 -20 -20 -20 -9 -20 -20 -20 -20 -20 -20 -20 -20 -20 -20 -20 -20 -20 -20 -20 -20 -20 -20 -20 -20 -15 6 -3 -1 4 -3 -17 -20
-20 -11 -17 3 -20 -20 -2 -11 -20 -20 -20 -20 -20 -20 -20 -20 -20 -20 -20 -20 -20 -20 -20 -20 -20 -20 -20 -20 1 -20 -20 -20 -20 -20 -20 -20 -20 -20 -20 -20 -3 -12 1 -15 -20 -20 -20
-13 -20 -20 -2 -20 -20 1 7 -20 -20 -20 -20 -20 -20 -20 -20 -20 -20 -20 -20 -20 -20 -20 -20 -20 -20 -20 -20 -20 -20 -20 -20 -20 -20 3 -20 -20 -5 -8 8 13 5 -20 -3 -13 -20 -20
-20 -20 -20 -20 -20 -20 -11 -7 -7 -20 -20 -20 -20 -20 -20 -20 -20 -20 -20 -20 -20 -20 -20 -20 -20 -20 -20 -20 -20 -20 -20 -17 -20 6 -13 -18 10 10 -4 4 -8 -1 -13 10 -20 -20 -20
-20 -20 -20 -20 -20 -20 -20 9 -2 -20 -20 -20 -20 -20 -20 -20 -9 -7 -20 -20 -20 -20 -20 -20 -20 -20 -20 -20 -20 -20 -20 -20 -9 26 10 22 16 -19 -8 -20 -20 -20 2 -7 -17 -20 -20
1 -0 -2 -20 -20 -20 -19 5 -11 -20 -20 -20 -20 -20 -20 -20 -1 -20 -20 -20 -20 -20 -20 -20 -20 -20 -20 -20 -20 -20 -20 -20 -20 8 -8 8 -11 -8 7 5 -11 -1 -20 -20 -20 -20 -20
4 5 3 -20 -20 -20 -20 -8 6 -11 -20 -20 -20 -20 -20 -20 -20 -20 -20 -20 -20 -20 -13 -20 -20 -20 -20 -20 -20 -20 -20 -20 -18 -8 -20 28 10 -20 -15 8 -20 23 -20 -20 -20 -20 29
9 2 2 2 -20 -20 -20 -20 -5 14 -20 -20 -20 -20 -20 -13 -20 -20 -20 -20 -20 -20 -13 -20 -20 -20 -20 -20 -20 -20 -20 -20 1 -5 -10 15 -20 -20 20 -20 -20 -20 -20 -20 -20 -20 -20
12 8 6 12 -20 -20 -20 -20 -15 13 -20 -20 -20 -20 -14 -20 -20 -20 -20 -20 -20 -18 -20 -20 -20 -20 -20 -20 -20 -20 -20 -20 -20 -20 -5 -20 -20 -20 -20 -20 -20 -20 -20 -16 13 2 -20
10 14 13 10 -20 -20 -20 -20 -20 6 -12 -20 -20 -20 -19 -20 -20 -20 -20 -20 -14 -20 -20 -20 -20 -20 -20 -20 -20 -20 -20 -20 -20 -20 6 -12 -18 -20 -20 -20 -20 -20 -19 1 -16 -20 -20
3 13 15 7 -20 -20 -20 -20 -20 12 7 -20 -20 -4 -20 -20 -20 -20 17 10 -20 -20 -20 -20 -20 -20 -20 -20 -20 -20 -20 -20 -20 -20 20 -5 24 -18 -20 -20 -20 -20 -20 -20 -20 -20 -20
-17 13 12 17 -20 -8 -20 -20 -20 14 23 -20 -20 -11 -20 -20 -20 -20 18 -20 -20 -20 -20 -20 -20 -20 -20 -20 -20 -20 -20 -20 -20 -20 -20 3 -14 -20 -20 -20 -20 -20 -20 -20 -20 -20 -20
14 -8 6 18 20 -20 -20 -20 -20 20 26 -20 -20 -20 -20 -20 -20 -4 -4 -20 -20 -20 -20 -20 -20 -20 -20 -20 -20 -20 -20 -20 -20 -20 -20 -20 -20 -20 -20 -20 -20 -20 -20 -20 -20 -20 -20
20 -2 4 18 17 16 -20 -20 5 21 23 -20 7 -4 -20 -20 -20 -12 -20 -20 -20 -20 -20 -20 -20 -20 -20 -20 -20 -20 -20 -20 -20 -20 -20 -20 -20 -20 -20 -20 -20 -20 -20 -20 -20 -20 -20
0 -3 20 17 16 15 18 -20 11 29 14 -20 14 -1 15 -20 5 -1 -20 -20 -20 -20 -20 -20 -20 -20 -20 -20 -20 -20 -20 -20 -20 -20 -20 -20 -20 -20 -20 -20 -20 -20 -20 -20 -20 -20 -20
8 28 32 19 16 -7 18 4 1 32 9 -14 -6 9 19 24 -20 -20 -20 -20 -20 -20 -20 -20 -20 -20 -20 -20 -20 -20 -20 -20 -20 -20 -20 -20 -20 -20 -20 -20 -20 -20 -20 -20 -20 -20 -20
-15 25 22 21 -11 -20 12 -14 22 30 -6 -20 22 -20 -20 -2 0 -20 -20 -20 -20 -20 -20 -20 -20 -20 -20 -20 -20 -20 -20 -20 -20 -20 -20 -20 -20 -20 -20 -20 -20 -20 -20 -20 -20 -20 -20
36 20 17 13 6 -15 9 27 34 31 2 12 13 -20 -20 -19 -20 -20 -20 -20 -20 -20 -20 -20 -20 -20 -20 -20 -20 -20 -20 -20 -20 -20 -20 -20 -20 -20 -20 -20 -20 -20 -20 -20 -20 -20 -20
18 20 15 12 -9 -19 -11 27 34 28 -2 -19 -20 -19 -20 -19 4 -20 -20 -20 -20 -20 -20 -20 -20 -20 -20 -20 -20 -20 -20 -20 -20 -20 -20 -20 -20 -20 -20 -20 -20 -20 -20 -20 -20 -20 -20
9 13 -12 -17 -10 -19 14 33 32 24 -15 -20 -18 15 18 20 -17 -20 -20 -20 -20 -20 -20 -20 -20 -20 -20 -20 -20 -20 -20 -20 -20 -20 -20 -20 -20 -20 -20 -20 -15 -20 -20 -20 -20 -20 -20
-20 -3 -15 14 -1 -7 32 31 30 31 -19 -9 28 12 4 12 -20 -20 -20 -20 -20 -20 -20 -20 -20 -20 -20 -20 -20 -20 -20 -20 -20 -20 -20 -20 -20 -20 -15 -20 -20 -20 -20 -20 -20 -20 -20
-19 16 -1 14 -20 21 36 33 35 26 -18 21 27 4 21 10 -20 -20 -20 -20 -20 -20 -20 -20 -20 -20 -20 -20 -20 -20 -20 -20 -20 -20 -20 -20 -20 -20 -20 -20 -20 -20 -20 -20 -20 -20 -20
-7 -20 -2 11 18 28 33 24 20 1 -20 24 14 -16 5 -20 -20 -20 -20 -20 -20 -20 -20 -20 -20 -20 -20 -19 5 -20 -20 -20 -20 -20 -20 -20 -20 -3 -20 -9 -20 -20 -20 -20 -20 -20 -20
10 12 20 7 28 30 21 -4 -8 -20 21 21 -0 -20 -20 -20 -20 -20 -20 -20 -20 -20 -20 -20 -20 -20 -20 -20 2 -20 -7 -20 -20 -20 -20 -20 -20 -20 -20 -2 -20 -20 -20 -20 -20 -20 -20
13 24 36 26 37 28 -9 6 -20 -19 3 26 8 -20 -20 -20 -20 -20 -20 -20 -20 -20 -20 -20 -20 -20 -20 -19 -14 -20 6 9 -20 -20 -20 -20 -20 -20 -20 -20 -20 -20 -20 -20 -20 -20 -20

GFSGBSN_prec_radar_039.txt.gz
Reflectivity
-12 -20 -20 -20 -20 1 11 -9 -20 -20 -20 -20 -20 -20 -20 -20 -20 -20 -20 -20 -20 -20 -20 -20 -20 -20 -20 -20 -20 -20 -20 -20 -20 -20 -20 -20 -20 -20 -20 -20 -20 -20 -20 7 -8 -20 5
-20 -20 -20 -20 -20 -1 8 11 -5 -20 -20 -20 -20 -20 -20 -20 -20 -20 -20 -20 -20 -20 -20 -20 -20 -20 -20 -20 -20 -20 -20 -20 -20 -20 -20 -20 -20 -20 -20 -20 -20 -16 6 -0 -8 -20 -20
-20 -20 -20 -20 -20 -20 -20 -2 10 -20 -20 -20 -20 -20 -20 -20 -20 -20 -20 -20 -20 -20 -20 -20 -20 -20 -20 -20 -20 -20 -20 -20 -20 -20 -20 -20 -20 -20 -20 -20 -20 11 14 -9 -18 -20 -17
-20 -20 -20 -20 -8 -20 -20 -20 1 -11 -19 -20 -20 -20 -20 -20 -20 -20 -20 -20 -20 -20 -20 -20 -20 -20 -20 -20 -20 -20 -20 -20 -20 -20 -20 -20 -20 -20 -20 -20 -20 -20 -19 -3 -20 14 -3
-19 -20 -20 -20 -20 -13 -19 -20 -20 -16 2 -16 -20 -20 -20 -20 -20 -20 -20 -20 -20 -20 -20 -20 -20 -20 -20 -20 -20 -20 -20 -20 -20 -20 -20 -20 -20 -20 -20 -20 -20 -20 -20 -11 -17 -17 -20
-3 5 -20 -20 -20 -20 -20 -20 -20 -20 -8 -7 -20 -20 -20 -20 -20 -20 -20 -20 -20 -20 -20 -20 -20 -20 -20 -20 -20 -20 -20 -20 -20 -20 -20 -20 -20 -20 -20 -20 -20 -20 -18 -14 -20 -20 -20
-20 14 8 -20 -20 -20 -20 -0 -20 -20 6 3 -4 -20 -20 -20 -20 -20 -20 -20 -20 -20 -20 -20 -20 -20 -20 -20 -20 -20 -20 -20 -20 -20 -20 -20 -20 -20 -20 -20 -20 -9 16 -20 -20 1 -20
8 14 17 10 -20 -15 -20 -20 -20 -20 -20 -10 -1 -20 -20 -20 -20 -20 -20 -20 -20 -20 -20 -20 -20 -20 -20 -20 -20 -20 -20 -20 -20 -20 -20 10 -20 -20 -18 -18 -16 7 -20 -20 -20 -20 -20
8 -2 7 4 13 -12 -20 -18 -20 -20 -20 -8 -16 -14 -20 -20 -20 -20 -20 -20 -20 -20 -20 -20 -20 -20 -20 -20 -20 -20 -20 -20 -20 -20 -20 -18 -20 -11 -17 8 -1 -14 3 -9 -20 -20 -20
15 5 -7 11 -3 2 -4 -20 -20 -20 -20 -20 5 -20 -20 -20 -20 -20 -20 -20 -20 -20 -20 -20 -20 -20 -20 -20 -20 -20 -20 -20 -20 -17 -16 12 -19 -20 14 -20 9 -20 -20 -11 -15 -20 -20
12 14 -0 -9 7 15 9 -20 -20 -17 -18 -20 -12 -20 -20 -20 -20 -20 -20 -20 -20 -20 -20 -20 -20 -20 -20 -20 -20 -20 -20 -9 -20 -20 -20 -19 -20 -20 -20 -20 -20 -20 -20 -18 -20 -7 -20
8 11 12 -20 -6 15 17 8 -14 -20 -20 -20 -20 -15 -20 -8 -4 -9 -20 -20 -20 -5 -20 -20 -20 -20 -20 -20 -20 -20 -20 -20 -20 -20 -20 -20 -20 -19 7 -20 -20 -20 -20 -20 -20 -20 -20
7 13 12 7 6 -9 10 6 5 -20 -20 -12 -20 15 -20 -20 1 -20 -20 -20 -18 4 -20 -20 -20 -20 -20 -20 -20 -20 -20 -20 -20 -20 -20 -20 -4 19 -0 -18 -20 -20 -20 -20 -20 -20 -5
16 4 8 12 16 9 6 6 9 -20 -20 -20 -3 20 -8 -20 -20 -20 -20 14 6 -20 -20 -20 -20 -20 -20 -20 -20 -20 -20 -20 -20 -20 -20 -20 -15 -2 -20 -20 2 -20 -20 -20 -20 -20 -13
14 15 -20 -12 15 16 -5 12 15 -16 -20 -20 11 15 -5 10 9 -1 -3 15 -20 -20 -20 -20 -20 -20 -20 -20 -20 -20 -20 -20 -20 -20 -20 -20 -20 7 -20 -18 8 -20 -20 -20 -20 -20 -19
12 -20 2 11 11 21 15 -8 15 11 -20 -13 14 13 -5 -4 -17 -16 19 5 -20 -20 -20 -20 -20 -20 -20 -20 -20 -20 -20 -20 -20 -20 -20 -20 -20 -20 -8 -18 -20 -20 -18 -20 -20 -20 -20
9 11 -20 -20 13 11 17 -2 14 15 -11 8 13 23 -14 -3 -3 4 6 4 -20 -20 -20 -20 -20 -20 -20 -20 -20 -20 -20 -20 -20 -20 -20 -20 -20 4 -1 11 -20 -20 -20 -20 -20 -20 -20
9 10 -3 -20 13 2 21 7 21 17 -19 8 14 12 -19 -20 -7 -1 -18 -5 -20 -20 -20 -20 -20 -20 -20 -20 -19 -20 -20 -20 -20 -20 -20 -20 -20 -6 11 -20 -20 -20 -20 -20 -20 -20 -20
9 10 -20 -20 12 19 25 16 22 26 2 14 4 13 -6 -20 -20 -20 -20 -20 -20 -20 -20 -20 -20 -20 -20 -20 21 -14 -20 -20 -20 -19 -20 -20 -20 -20 -10 15 -5 -20 -20 -20 -20 -20 -20
9 11 -12 -20 24 29 16 26 20 21 22 17 13 23 15 5 -20 -20 -20 -20 -20 -20 -20 -20 -20 -20 -20 -20 -20 -2 -20 -20 -20 -20 -20 -20 -20 -20 -20 -20 -20 -20 -20 -20 -20 -20 -20
7 -20 -20 -13 29 27 4 30 -3 18 11 21 8 11 -7 4 -2 -20 -20 -20 -20 -20 -20 -20 -20 -20 -20 -20 -20 -20 -20 -20 -20 -20 -20 -20 -20 -20 -20 -20 -20 -20 -20 -20 -20 -20 -20
-19 -20 -20 -10 27 15 -20 24 15 16 15 22 22 0 14 14 10 -5 -20 -20 -20 -20 -20 -20 -19 -20 -20 -20 -20 -20 -20 -20 -20 -20 -20 -20 -20 -20 -20 -20 -20 -20 -20 -20 -20 -20 -20
2 -20 1 -10 16 3 -20 -10 25 15 22 24 15 -16 16 -6 -1 -20 -20 -20 -20 -20 -20 -20 -20 -20 -20 -20 -20 -20 -20 -20 -20 -20 -20 -20 -20 -20 -20 -20 -20 -20 -20 -20 -20 -20 -20
-15 2 -14 -20 5 -12 -18 -20 15 9 19 17 10 2 25 -5 -14 -20 -20 -20 -20 -20 -20 -20 -20 -20 -20 -20 -19 -4 -20 -20 -20 2 -20 -20 -20 -20 -20 -20 -20 -20 -20 -20 -20 -20 -20
-20 -16 -20 -20 10 14 7 10 22 18 -6 15 -0 13 15 -19 -4 -20 -20 -20 -20 -20 -20 -20 -20 -20 -20 -20 -7 17 -20 -20 -20 -16 -20 -20 -20 -20 -20 -20 -20 -20 -20 -20 -20 -20 -20
-3 -7 13 -11 13 9 13 23 15 3 14 19 11 8 31 29 -20 -20 -20 -20 -20 -20 -20 -1 -20 2 -20 -6 -20 -20 -20 -20 -20 -20 -20 -20 -20 -20 -20 -20 -20 -20 -20 -20 -20 -20 -20
-7 13 -3 19 31 13 10 19 10 -20 -15 24 17 31 14 34 2 -20 -20 -20 -5 -12 -20 -20 0 23 -20 -18 -20 -20 -20 -20 -20 -20 -20 -20 -20 -20 -20 -20 -20 -20 -20 -20 -20 -20 -20
21 21 18 28 31 31 27 24 15 3 -20 -16 24 16 30 16 14 -20 -20 -20 -20 5 -20 -20 25 15 -20 8 -20 -20 -20 -20 -20 -20 -20 -20 -20 -20 -20 -20 -20 -20 -20 -20 -20 -20 -20
15 16 15 7 14 24 22 -17 -20 -20 -20 -20 29 21 12 15 20 5 -10 -20 8 -20 -20 -20 26 1 -16 -20 -20 -20 -20 -20 -20 -20 -20 -20 -20 -20 -20 -20 -20 -20 -20 -20 -20 -20 -20

GFSGBSN_prec_radar_042.txt.gz
Reflectivity
-20 -20 -20 -20 -20 -20 -20 -3 6 1 -20 -20 -20 -20 -20 -20 -20 -20 -20 -20 -20 -20 -20 -20 -20 -20 -20 -20 -20 -20 -20 -20 -20 -20 -20 -20 -20 -20 -20 -20 -20 -20 -20 -20 -20 -20 -20
-20 -20 -20 -20 -20 -20 -20 -3 11 10 13 -20 -20 -20 -20 -20 -20 -20 -20 -20 -20 -20 -20 -20 -20 -20 -20 -20 -20 -20 -20 -20 -20 -20 -20 -20 -20 -20 -20 -20 -20 -20 -20 -20 -20 -20 -2
-20 -20 -20 -20 -20 -20 -20 -20 -19 7 9 9 -20 -20 -20 -20 -20 -20 -20 -20 -20 -20 -20 -20 -20 -20 -20 -20 -20 -20 -20 -20 -20 -20 -20 -20 -20 -20 -20 -20 -20 -20 -20 -20 -3 -20 -13
3 -20 -14 -2 -20 -20 -20 -20 -20 -20 -1 2 4 -20 -20 -20 -20 -20 -20 -20 -20 -20 -20 -20 -20 -20 -20 -20 -20 -20 -20 -20 -20 -20 -20 -20 -20 -20 -20 -20 -20 -16 1 -13 -20 -20 -20
8 6 -15 -20 -6 -20 -20 -20 -20 -20 -20 -7 -2 -15 -20 -20 -20 -20 -20 -20 -20 -20 -20 -20 -20 -20 -20 -20 -20 -20 -20 -20 -20 -20 -20 -20 -20 -20 -20 -20 -20 -20 14 -20 -20 -1 -20
11 16 15 4 -20 -20 -20 -20 -20 -20 -0 -17 -20 -15 -20 -20 -20 -20 -20 -20 -20 -20 -20 -20 -20 -20 -20 -20 -20 -20 -20 -20 -20 -20 -20 -20 -20 -20 -20 -20 -20 -20 -20 -17 -16 -20 -20
15 18 12 13 11 -20 -20 -20 -20 -20 -20 -10 -4 2 1 -20 -20 -20 -20 -20 -20 -20 -20 -20 -20 -20 -20 -20 -20 -20 -20 -20 -20 -20 -20 -20 -20 -20 -20 -20 -20 -20 -20 6 -20 -20 -20
15 12 14 14 14 9 -20 -20 -5 -20 -20 -20 -7 -13 2 -20 -20 -20 -20 -20 -20 -20 -20 -20 -20 -20 -20 -20 -20 -20 -20 -20 -20 -20 -20 -20 -20 -20 -20 -20 -20 -20 -18 -8 -20 -20 -20
13 15 14 14 16 17 6 -20 1 -20 -20 -20 -18 13 -10 -8 -20 -20 -20 -20 -20 -20 -20 -20 -20 -20 -20 -20 -20 -20 -20 -20 -20 -20 -20 -20 -20 -20 -20 -20 -20 -20 -20 -20 -20 -20 -20
12 13 14 13 13 13 13 12 -20 -17 -20 -20 -20 13 -2 -13 -20 -20 -20 -20 -20 -20 -20 -20 -20 -20 -20 -20 -20 -20 -20 -20 -20 -20 -20 -20 -20 -20 -17 -17 -20 -20 -20 -20 -20 -20 -20
23 10 12 15 14 17 17 13 8 -20 -20 -20 -20 0 6 -17 -18 -10 -20 -20 -20 -20 -20 -20 -20 -20 -20 -20 -20 -20 -20 -20 -20 -20 -20 -20 -20 -20 -20 -16 -20 -20 -20 -16 -15 -20 -20
19 20 11 12 15 4 14 13 16 2 -16 -20 -20 -16 13 -10 -2 -9 -20 -20 -20 -20 -20 -20 -20 -20 -20 -20 -20 -20 -20 -20 -20 -20 -20 -20 -20 -20 -20 -16 -9 -20 -20 -20 -20 -20 -20
15 23 19 8 13 16 -16 14 16 13 -4 -20 -20 -14 13 -2 -8 -13 -20 -20 -20 -19 -20 -20 -20 -20 -20 -20 -20 -20 -20 -20 -20 -20 -20 -20 -20 -20 -20 -19 -20 -20 -20 -20 -20 -20 -20
-18 6 27 13 8 14 15 -0 10 19 5 -17 -20 -20 19 -10 -10 -15 -20 16 -20 -20 -20 -20 -20 -20 -20 -20 -20 -20 -20 -20 -20 -20 -20 -20 -20 -20 -20 -20 -20 -20 -20 -20 -20 -20 -20
-20 -20 18 22 3 4 13 16 12 17 11 -16 -16 11 12 -3 -20 -20 -20 7 -20 -20 -20 -20 -20 -20 -20 -20 -20 -20 -20 -20 -20 -20 -20 -20 -20 -20 -20 -20 -20 -18 -20 -20 -20 -20 -20
-20 0 33 11 -7 -9 9 19 15 14 14 5 4 17 -4 -4 12 -20 7 -20 -20 -20 -20 -20 -20 -20 -20 -20 -20 -20 -20 -20 -20 -20 -20 -20 -20 -20 -20 -20 -20 -20 -20 -20 -20 -20 -20
-13 -18 28 25 -16 -2 -20 12 20 9 16 11 17 13 9 -20 11 -10 -5 -3 -20 -10 -20 -20 -20 -20 -20 -20 -20 -20 -20 -20 -20 -20 -20 -20 -20 -20 -20 -20 -20 -20 -20 -20 -20 -20 -20
-14 -7 -18 25 23 12 0 -16 16 12 18 20 15 11 10 -20 8 -20 -19 -19 -20 11 -18 -20 -20 -20 -20 -20 -20 -20 -20 -20 -20 -20 -20 -20 -20 -20 -20 -20 -3 -20 -20 -20 -20 -20 -20
-3 5 12 11 4 15 18 -20 15 20 16 -20 10 15 16 -20 6 -20 -20 4 -20 8 -16 -20 -20 -20 -20 -20 -20 -20 -20 -20 -20 -20 -20 -20 -20 -20 -20 -20 -20 -20 -20 -20 -10 -20 -20
-0 3 -0 11 21 10 -20 -20 1 17 21 -1 12 14 23 -7 -20 -20 -20 -20 -20 -13 -20 -20 -20 -20 -20 -20 -20 -20 -20 -20 -20 -20 1 -20 -20 -20 -20 -20 -20 -20 -20 -20 -20 -20 -20
8 -10 18 8 -13 -20 -20 -20 -3 12 25 3 18 8 -1 4 -20 -20 -20 -20 -20 -20 -20 -20 -20 -20 -20 -20 -20 -20 -20 -20 -20 -20 -20 -20 -20 -20 -20 -20 -20 -20 -20 -20 -20 -20 -20
13 17 19 1 -13 -20 -20 -20 -2 17 30 20 14 13 7 -20 3 -20 -20 -20 -20 -20 -20 -20 -20 -20 -20 -20 -20 -20 -20 -20 -20 -20 -20 -20 -20 -20 -20 -20 -20 -20 -20 -20 -20 -20 -20
15 6 -20 -14 -20 -2 -5 -11 -18 31 36 21 18 -20 1 -20 -19 -20 -20 -20 -20 -20 -20 -20 -20 -20 -20 -20 -20 -20 -20 -20 -20 -20 -20 -20 -20 -20 -20 -20 -20 -20 -20 -20 -20 -20 -20
14 9 -20 -20 -20 -20 -7 26 26 29 39 17 17 -8 -2 -2 2 -20 -20 -20 -20 -20 -20 -20 -20 -20 -20 -20 -20 -20 -20 -20 -20 -20 -20 -20 -20 -20 -20 -20 -20 -20 -20 -20 -20 -20 -20
12 3 -20 -20 -20 -20 -18 23 4 27 31 16 6 7 10 12 -6 9 -20 -20 -20 -20 -20 -20 -20 -20 -20 -20 -20 -20 -20 -20 -20 -20 -20 -20 -20 -20 -20 -20 -20 -20 -20 -20 -20 -20 -20
14 -2 -18 -20 -20 -20 -20 -3 10 11 19 5 5 15 23 10 -2 -20 -14 -20 -20 -20 -20 -20 -20 -20 -12 19 -20 -20 -20 -20 -20 -20 -20 -20 19 -20 -20 -20 -20 -20 -20 -20 -20 -20 -20
-1 3 -9 -1 -20 -20 -20 -12 -5 -20 -6 12 -17 34 26 4 -16 -4 -20 -20 -20 -20 -20 -20 2 -20 -16 -20 -20 -20 -20 -20 -20 -20 -20 -20 -20 -20 -20 -20 -20 -20 -20 -20 -20 -20 -20
-6 -7 -5 10 -20 -20 -20 -20 -20 -20 3 15 -2 20 32 12 5 -1 -20 -20 -20 -20 -20 -20 -0 -20 6 4 -11 -20 -20 -20 -20 -20 -20 -20 -20 -20 -20 -20 -20 -20 -20 -20 -20 -20 -20
11 17 -20 -16 -19 -20 -20 -12 -19 5 6 16 -16 19 25 20 34 -4 -18 -20 -20 -20 -20 -20 -20 -20 -20 14 -20 -17 -20 -20 -20 -20 -20 -20 -20 -20 -20 -20 -20 -20 -20 -20 -20 -20 -20

GFSGBSN_prec_radar_045.txt.gz
Reflectivity
-11 -20 -9 -5 -5 -20 -20 -20 -20 -20 9 -5 -20 -20 -20 -20 -20 -20 -20 -20 -20 -20 -20 -20 -20 -20 -20 -20 -20 -20 -20 -20 -20 -20 -20 -20 -20 -20 -20 -20 -20 -20 -20 -20 -20 -20 -20
10 4 -2 -20 -20 -20 -20 -20 -20 -20 -5 11 3 -20 -20 -20 -20 -20 -20 -20 -20 -20 -20 -20 -20 -20 -20 -20 -20 -20 -20 -20 -20 -20 -20 -20 -20 -20 -20 -20 -20 -20 -20 -20 -20 -20 -20
14 15 5 5 -20 -20 -20 -20 -20 -20 2 5 9 3 -20 -20 -20 -20 -20 -20 -20 -20 -20 -20 -20 -20 -20 -20 -20 -20 -20 -20 -20 -20 -20 -20 -20 -20 -20 -20 -20 -20 -20 -20 -20 -20 -20
12 5 3 4 4 2 -20 -20 -20 -20 -20 -5 5 -17 -20 -20 -20 -20 -20 -20 -20 -20 -20 -20 -20 -20 -20 -20 -20 -20 -20 -20 -20 -20 -20 -20 -20 -20 -20 -20 -20 -20 -20 -20 -20 -20 -20
14 16 16 9 6 6 -5 -20 -20 -20 -20 -20 -17 -20 -20 -20 -20 -20 -20 -20 -20 -20 -20 -20 -20 -20 -20 -20 -20 -20 -20 -20 -20 -20 -20 -20 -20 -20 -20 -20 -20 -20 -19 -20 -20 -20 -20
11 15 7 15 13 10 2 -11 -20 -20 -16 -4 -20 -9 9 5 -20 -20 -20 -20 -20 -20 -20 -20 -20 -20 -20 -20 -20 -20 -20 -20 -20 -20 -20 -20 -20 -20 -20 -20 -20 -20 -16 -20 -20 -20 -20
12 16 19 16 6 8 10 5 2 -20 -20 -20 -20 -20 3 -9 26 2 -20 -20 -20 -20 -20 -20 -20 -20 -20 -20 -20 -20 -20 -20 -20 -20 -20 -20 -20 -20 -20 -20 -20 -20 -20 -20 -19 -20 -20
-7 11 14 16 13 15 14 11 3 -14 -20 -17 -20 -12 10 4 10 -10 -15 -20 -20 -20 -20 -20 -20 -20 -20 -20 -20 -20 -20 -20 -20 -20 -20 -20 -20 -20 -20 -20 -20 -20 -20 -20 -20 -20 -20
13 5 8 14 16 14 13 13 7 2 4 -19 -20 -20 10 8 -11 8 2 -20 -20 -20 -20 -20 -20 -20 -20 -20 -20 -20 -20 -20 -20 -20 -20 -20 -20 -20 -20 -20 -20 -20 -20 -17 -20 -20 -20
-12 12 16 7 14 15 14 16 17 7 6 -17 -20 -20 9 12 -20 -20 -18 -20 -20 -20 -20 -20 -20 -20 -20 -20 -20 -20 -20 -20 -20 -20 -20 -20 -20 -20 -20 -20 -20 -20 -20 -20 -20 -20 -20
-20 8 17 18 8 14 14 14 15 13 4 5 -20 -20 -13 4 -20 -20 -20 -20 -20 -20 -20 -20 -20 -20 -20 -20 -20 -20 -20 -20 -20 -20 -20 -20 -20 -20 -20 -20 -20 -20 -20 -20 -20 -20 -20
-20 -20 10 23 16 8 15 16 4 16 14 5 -20 -20 -14 14 -10 -20 -20 -20 -20 -20 -20 -20 -20 -20 -20 -20 -20 -20 -20 -20 -20 -20 -20 -20 -20 -20 -20 -20 -20 -20 -20 -20 -20 -20 -20
-20 -20 -20 13 23 9 8 16 15 14 13 6 -1 -20 3 -9 -14 -20 -20 -20 -13 -20 -20 -20 -20 -20 -20 -20 -20 -20 -20 -20 -20 -20 -20 -20 -20 -20 -20 -20 -20 -20 -20 -20 -20 -20 -20
-20 -20 -20 -20 11 24 9 -13 14 17 18 -5 -4 -20 -9 1 -6 -20 -8 -20 -20 -20 -20 -20 -20 -20 -20 -20 -20 -20 -20 -20 -20 -20 -20 -20 -20 -20 -20 -20 -20 -20 -20 -20 -20 -20 -20
2 -20 -20 -18 -17 23 17 8 15 14 15 15 0 -19 12 -18 -10 -20 -12 9 -20 -20 -19 -20 -20 -20 -20 -20 -20 -20 -20 -20 -20 -20 -20 -20 -20 -20 -20 -20 -20 -20 -20 -20 -20 -20 -20
9 5 -20 -20 -20 9 28 10 2 11 11 18 11 9 -12 -19 -19 -20 3 -0 -20 -20 -20 -20 -20 -20 -20 -20 -20 -20 -20 -20 -20 -20 -20 -20 -20 -20 -20 -20 -20 -20 -20 -20 -20 -20 -20
11 7 -5 -20 -20 1 19 18 -3 21 14 16 12 11 -20 -10 5 12 -15 -2 -14 -20 -20 -13 -20 -20 -20 -20 -20 -20 -20 -20 -20 -20 -20 -20 -20 -20 -20 -20 -20 -20 -20 -20 -20 -20 -20
18 8 7 -20 -20 3 -1 26 17 10 22 23 -4 2 -16 -20 19 20 -20 -20 -20 -20 -17 -20 -20 -20 -20 -20 -20 -20 -20 -20 -20 -20 -20 -20 -20 -20 -20 -20 -20 -20 -20 -20 -20 -20 -20
26 3 -1 -8 -1 9 18 24 -3 3 19 17 9 8 -5 -20 4 -3 -19 -20 -20 -20 4 -16 -20 -20 -20 -20 -20 -20 -20 -20 -20 -20 -20 -20 -20 -20 -20 -20 -20 -20 -20 -20 -20 -20 -20
30 22 0 1 0 4 20 25 22 -16 17 22 10 13 23 24 -20 -20 -20 -20 -20 -20 -10 -20 -20 -20 -20 -20 -20 -20 -20 -20 -20 -20 -20 -20 -20 -20 -20 -20 -20 -20 -20 -20 -20 -20 -20
29 25 18 13 6 20 21 24 8 -16 23 31 8 -1 -8 18 -1 -11 -20 -20 -20 -11 -6 -20 -20 -20 -20 -20 -20 -20 -20 -20 -20 -20 -20 -20 -20 -20 -20 -20 -20 -20 -20 -20 -20 -20 -20
30 28 24 19 14 22 27 4 21 -20 11 32 12 14 1 -18 -1 2 0 -20 -20 -20 -3 -20 -20 -20 -20 -20 -20 -20 -20 -20 -20 -20 -20 -20 -20 -20 -20 -20 -20 -20 -20 -20 -20 -20 -20
31 28 27 28 12 17 17 7 -18 -12 24 32 22 -19 -1 5 -20 -3 -20 -20 -20 -17 -20 -20 -20 -16 -20 -20 -20 -20 -20 -20 -20 -20 -20 -20 -20 -20 -20 -20 -20 -20 -20 -20 -20 -20 -20
30 28 25 28 11 18 16 -16 -17 -20 13 30 20 -14 16 -7 7 -20 -20 -20 -20 -20 -20 -20 -20 -20 -20 -20 -20 -20 -20 -20 -20 -20 -20 -20 -20 -20 -20 -20 -20 -20 -20 -20 -20 -20 -20
32 27 29 13 10 9 -17 -18 -20 -20 -11 29 22 -10 26 15 -15 -3 -20 -20 -20 -20 -20 -20 -20 -20 6 -18 -20 -20 -20 -20 -20 -20 -20 -20 -20 -20 -20 -20 -20 -20 -20 -20 -20 -20 -20
29 29 20 12 6 -14 -20 -20 -20 -15 4 27 37 -18 14 22 -7 -10 2 -20 -20 -20 -20 -20 -20 -20 -20 -20 -17 -20 -20 -20 -20 -20 -20 -20 -20 -20 -20 -20 -20 -20 -20 -20 -20 -20 -20
32 26 26 12 -14 -20 -20 -20 -20 -13 2 35 35 0 14 9 1 14 4 -20 -20 -20 -20 -20 -20 -20 -20 -17 12 -20 -5 -20 -20 -20 -20 -20 -20 -20 -20 -20 -20 -20 -20 -20 -20 -20 -20
26 26 12 -4 -20 -20 -20 6 21 18 12 25 31 7 -4 2 -9 -3 -15 -20 -20 -20 -20 -20 -20 -20 -20 -20 9 20 -20 -20 -20 -20 -20 -20 -20 -20 -20 -20 -20 -20 -20 -20 -20 -20 -20
28 22 6 -14 -20 -20 -2 -19 -20 -18 17 33 31 28 25 4 26 1 -20 -20 -20 -20 -20 -20 -20 -20 -20 -20 -8 20 -20 -20 -20 -20 -20 -20 -20 -20 -20 -20 -20 -20 -20 -20 -20 -20 -20

GFSGBSN_prec_radar_048.txt.gz
Reflectivity
17 15 7 1 -2 8 13 13 -20 -18 2 -20 10 5 -20 -20 -20 -20 -20 -20 -20 -20 -20 -20 -20 -20 -20 -20 -20 -20 -20 -20 -20 -20 -20 -20 -20 -20 -20 -20 -20 -20 -20 -20 7 -20 -20
16 12 7 13 7 -20 -20 -20 -20 -20 -20 -20 11 11 2 -20 -20 -20 -20 -20 -20 -20 -20 -20 -20 -20 -20 -20 -20 -20 -20 -20 -20 -20 -20 -20 -20 -20 -20 -20 -20 -20 -20 -20 -20 -7 -20
14 8 11 13 9 5 -10 -20 -20 -20 -20 -3 10 13 9 3 -20 -20 -20 -20 -20 -20 -20 -20 -20 -20 -20 -20 -20 -20 -20 -20 -20 -20 -20 -20 -20 -20 -20 -20 -20 -20 -20 -20 -20 -15 -14
12 14 13 7 4 8 5 -0 -20 -20 -20 -9 9 -13 13 10 -16 -20 -20 -20 -20 -20 -20 -20 -20 -20 -20 -20 -20 -20 -20 -20 -20 -20 -20 -20 -20 -20 -20 -20 -20 -20 -20 -20 -20 -20 -20
14 14 13 16 11 12 2 7 0 -14 -20 -20 -20 -15 2 -10 -5 -20 -20 -20 -20 -20 -20 -20 -20 -20 -20 -20 -20 -20 -20 -20 -20 -20 -20 -20 -20 -20 -20 -20 -20 -20 -20 -20 -16 -20 -20
12 1 14 13 16 11 10 3 14 -1 -20 -20 -20 -20 -20 -20 10 -18 -20 -20 -20 -20 -20 -20 -20 -20 -20 -20 -20 -20 -20 -20 -20 -20 -20 -20 -20 -20 -20 -20 -20 -20 -20 1 -20 -20 -20
9 17 9 10 12 14 11 17 13 13 1 -20 -20 -20 -20 -20 1 -1 -18 6 18 -3 -3 -13 -20 -20 -20 -20 -20 -20 -20 -20 -20 -20 -20 -20 -20 -20 -20 -20 -20 -20 -20 -20 -20 -20 -20
-20 4 8 15 -12 -7 11 13 16 15 3 -19 -20 -20 -18 -2 -2 13 -20 -20 -20 -17 -9 3 -20 -20 -20 -20 -20 -20 -20 -20 -20 -20 -20 -20 -20 -20 -20 -20 -20 -20 -20 -20 -20 -20 -20
-20 -20 -16 8 16 13 10 12 12 14 12 -1 -9 -20 -20 -1 15 1 -20 -20 -20 5 -20 3 -20 -20 -20 -20 -20 -20 -20 -20 -20 -20 -20 -20 -20 -20 -20 -20 -20 -20 -20 -20 -20 -20 -20
-20 -20 -20 -15 12 16 4 13 13 16 16 12 -1 -20 -20 14 11 -20 -18 -20 -11 6 8 0 -20 -20 -20 -20 -20 -20 -20 -20 -20 -20 -20 -20 -20 -20 -20 -20 -20 -20 -20 -20 -20 -20 -20
-20 -20 -20 -20 -14 6 14 -1 15 14 11 10 -4 -20 -20 17 -20 -20 -20 -20 -18 -7 -20 -20 -20 -20 -20 -20 -20 -20 -20 -20 -20 -20 -20 -20 -20 -20 -20 -20 -20 -20 -20 -20 -20 -20 -20
13 -12 -20 -20 -20 -20 15 5 13 14 15 16 7 -20 -20 1 9 -20 -19 -20 -20 -10 -20 -20 -20 -20 -20 -20 -20 -20 -20 -20 -20 -20 -20 -20 -20 -20 -20 -20 -20 -20 -20 -20 -20 -20 -20
5 7 -4 -20 -20 -20 -5 18 10 11 14 17 14 -7 0 14 -4 -20 2 -20 -2 -20 -20 -20 -20 -20 -20 -20 -20 -20 -20 -20 -20 -20 -20 -20 -20 -20 -20 -20 -20 -20 -20 -20 -20 -20 -20
12 10 13 -12 -20 -20 -20 22 13 12 15 13 16 9 -20 4 -9 1 19 0 -2 -20 -20 -20 -20 -20 -20 -20 -20 -20 -20 -20 -20 -20 -20 -20 -20 -20 -20 -20 -20 -20 -20 -20 -20 -20 -20
8 12 15 15 7 -20 -20 10 26 11 14 15 17 -2 -8 -20 -11 6 -6 15 -5 -20 -20 -20 -20 -20 -20 -20 -20 -20 -20 -20 -20 -20 -20 -20 -20 -20 -20 -20 -20 -20 -20 -20 -20 -20 -20
16 14 14 20 14 -4 -20 -20 20 22 13 16 6 3 -17 -20 -7 13 -8 -8 -20 -20 -20 -17 -20 -20 -20 -20 -20 -20 -20 -20 -20 -20 -20 -20 -20 -20 -20 -20 -20 -20 -20 -20 -20 -20 -20
16 20 18 17 14 8 -20 -20 -10 29 17 17 16 8 -20 9 1 15 5 -2 -18 -20 -20 -20 -20 -20 -20 -20 -20 -20 -20 -20 -20 -20 -20 -20 -20 -20 -20 -20 -20 -20 -20 -20 -20 -20 -20
27 22 21 19 13 13 -20 -20 21 19 22 23 23 -4 -20 -20 4 8 -3 -20 -20 -20 -20 -20 -20 -20 -20 -20 -20 -20 -20 -20 -20 -20 -20 -20 -20 -20 -20 -20 -20 -20 -20 -20 -20 -20 -20
23 27 24 21 19 20 -18 -18 -18 36 14 7 21 2 5 -20 -4 -16 -2 -16 -20 -18 -20 -20 -20 -20 -20 -20 -20 -20 -20 -20 -20 -20 -20 -20 -20 -20 -20 -20 -20 -20 -20 -20 -20 -20 -20
12 31 28 26 28 23 -15 -5 6 29 21 6 26 10 29 19 -20 -20 -4 -8 -20 -20 -20 -20 -20 -20 -20 -20 -20 -20 -20 -20 -20 -20 -20 -20 -20 -20 -20 -20 -20 -20 -20 -20 -20 -20 -20
21 30 32 30 29 25 -14 5 4 -2 22 24 29 4 -0 3 -18 -20 -20 -20 -20 -20 -20 -20 -20 -20 -20 -20 -20 -20 -20 -20 -20 -20 -20 -20 -20 -20 -20 -20 -20 -20 -20 -20 -20 -20 -20
21 20 34 33 32 25 1 6 4 -20 27 27 28 -4 4 -13 -20 -20 -5 -20 -20 -20 -20 -20 -20 -20 -20 -20 -20 -20 -20 -20 -20 -20 -20 -20 -20 -20 -20 -20 -20 -20 -20 -20 -20 -20 -20
22 23 33 33 31 30 20 -0 12 -9 28 28 29 -19 -1 5 -19 -8 -20 -20 -20 -20 -20 -20 -20 -20 -20 -20 -17 -20 -20 -20 -20 -20 -20 -20 -20 -20 -20 -20 -20 -20 -20 -20 -20 -20 -20
18 19 35 34 27 28 27 6 13 -18 7 -3 24 -20 15 8 6 -20 -20 -20 -20 -20 -20 -20 -15 -20 -20 11 8 -20 -20 -20 -20 -20 -20 -20 -20 -20 -20 -20 -20 -20 -20 -20 -20 -20 -20
16 19 31 33 27 30 12 9 4 -16 -6 -11 -5 -18 -16 10 11 -5 -8 -20 -20 -20 -20 -20 -17 -5 13 9 26 -20 -20 -20 -20 -20 -20 -20 -20 -20 -20 -20 -20 -20 -20 -20 -20 -20 -20
16 27 34 26 30 27 9 15 6 14 -14 -20 11 15 -4 33 -15 -6 3 -20 -20 -20 -20 -20 -20 3 13 4 12 -20 15 -20 -20 -20 -20 -20 -20 -20 -20 -20 -20 -20 -20 -20 -20 -20 -20
-3 29 32 29 32 17 16 16 26 2 15 -20 -10 22 14 22 20 6 8 -8 -20 -20 -20 -20 -20 -18 -6 -10 -19 -18 -20 11 -20 -20 -20 -20 -20 -20 -20 -20 -20 -20 -20 -20 -20 -20 -20
28 31 30 32 34 19 9 23 19 2 -1 -20 -20 22 23 14 27 16 -20 -14 -20 -20 -20 -20 -20 -20 -20 -20 -20 -16 17 -3 11 -20 -20 -20 -20 -20 -20 -20 -20 -20 -20 -20 -20 -20 -20
30 29 34 32 27 21 20 15 14 17 -3 -20 8 -1 11 25 27 18 16 13 -20 -20 -20 -20 -20 -20 -20 -20 -20 -20 8 -20 -20 -20 -20 -20 -20 -20 -20 -20 -20 -20 -20 -20 -20 -20 -20

GFSGBSN_prec_radar_051.txt.gz
Reflectivity
8 16 14 15 13 12 -9 -20 -13 -13 5 12 -18 15 15 16 9 -20 -20 -20 -20 -20 -20 -20 -20 -20 -20 -20 -20 -20 -20 -20 -20 -20 -20 -20 -20 -20 -20 -20 -20 -20 -20 -20 -20 -20 -20
11 12 15 8 7 13 15 7 -0 -20 -20 -20 -1 12 -13 13 12 10 -20 -20 -20 -20 -20 -20 -20 -20 -20 -20 -20 -20 -20 -20 -20 -20 -20 -20 -20 -20 -20 -20 -20 -20 -20 -20 -20 -20 -20
11 14 12 13 12 15 15 14 0 -2 -20 -20 -19 -4 10 -20 -9 10 -4 -20 -20 -20 -20 -20 -20 -20 -20 -20 -20 -20 -20 -20 -20 -20 -20 -20 -20 -20 -20 -20 -20 -20 -20 -20 -20 -20 -20
18 15 9 12 17 11 14 14 13 4 -2 -20 -20 -17 9 -19 -6 7 -6 -20 -20 -20 -20 -20 -20 -20 -20 -20 -20 -20 -20 -20 -20 -20 -20 -20 -20 -20 -20 -20 -20 -20 -20 -20 -20 -20 -20
-19 13 16 10 11 13 11 13 13 12 12 1 -20 -20 -20 -9 13 12 -14 -20 -20 -20 -20 -20 -20 -20 -20 -20 -20 -20 -20 -20 -20 -20 -20 -20 -20 -20 -20 -20 -20 -20 -20 -20 -20 9 -20
-0 -19 13 16 9 10 5 15 3 14 14 8 -20 -20 -20 -20 -16 9 -20 -20 -20 -20 -20 -20 -20 -20 -20 -20 -20 -20 -20 -20 -20 -20 -20 -20 -20 -20 -20 -20 -20 -20 -20 -20 -20 -20 -20
-20 1 -20 10 5 -0 9 15 6 -1 14 12 3 -20 -20 -20 -20 16 4 -20 -20 -20 -20 -20 -13 -16 -20 -20 -20 -20 -20 -20 -20 -20 -20 -20 -20 -20 -20 -20 -20 -20 -20 -20 -19 -20 -20
-20 -20 -20 -20 14 15 16 10 17 12 2 8 2 -8 6 16 -20 8 -2 -20 -20 -20 -20 -20 -20 -14 -20 -16 -20 -20 -20 -20 -20 -20 -20 -20 -20 -20 -20 -20 -20 -20 -20 -20 -20 -20 -20
-9 -20 -18 -10 -20 -7 17 18 16 12 13 11 15 -6 -2 10 -1 -0 -20 -20 -20 -19 -11 -20 -20 -20 -20 -20 -20 -20 -20 -20 -20 -20 -20 -20 -20 -20 -20 -20 -20 -20 -20 -20 -20 -20 -20
3 -3 -7 -17 -20 -20 -12 14 17 15 17 16 10 13 -20 -6 -8 -20 -20 -20 -20 -20 -20 -20 -20 -20 -20 -20 -20 -20 -20 -20 -20 -20 -20 -20 -20 -20 -20 -20 -20 -20 -20 -20 -20 -20 -20
-9 -18 0 -12 -20 -20 -20 -20 13 15 15 16 16 16 -13 -10 -20 -20 -20 -20 -20 -20 -20 -20 -20 -20 -3 -20 -20 -20 -20 -20 -20 -20 -20 -20 -20 -20 -20 -20 -20 -20 -20 -20 -20 -20 -20
-1 4 8 5 -20 -20 -20 -20 9 20 14 14 14 15 -8 -18 9 -20 -20 -20 -20 -15 -20 -20 -20 -20 -19 -20 -20 -20 -20 -20 -20 -20 -20 -20 -20 -20 -20 -20 -20 -20 -20 -20 -20 -20 -20
6 -5 8 10 11 -16 -20 -20 -20 15 21 15 17 17 11 9 -5 -20 -20 -20 -17 -17 -20 -19 -7 -20 -20 -20 -20 -20 -20 -20 -20 -20 -20 -20 -20 -20 -20 -20 -20 -20 -20 -20 -20 -20 -20
12 5 -3 8 13 6 -11 -11 -20 -20 23 17 18 19 9 -19 -18 -17 -6 -17 7 -20 -20 -20 6 13 -10 -20 -20 -20 -20 -20 -20 -20 -20 -20 -20 -20 -20 -20 -20 -20 -20 -20 -20 -20 -20
17 14 15 3 -2 13 15 2 -20 -20 -6 28 19 12 1 -20 -20 -20 -20 13 -20 -20 -20 -20 -2 -9 -20 -20 -20 -20 -20 -20 -20 -20 -20 -20 -20 -20 -20 -20 -20 -20 -20 -20 -20 -20 -20
10 16 15 20 13 10 14 5 -14 -20 3 32 17 16 7 -20 -18 13 -1 -20 -20 -20 -20 -13 -14 -15 -20 -20 -20 -20 -20 -20 -20 -20 -20 -20 -20 -20 -20 -20 -20 -20 -20 -20 -20 -20 -20
3 13 1 18 23 11 13 15 3 -11 3 34 12 21 -0 1 16 16 -3 -6 -20 -20 -20 -2 -9 -5 -16 -20 -20 -20 -20 -20 -20 -20 -20 -20 -20 -20 -20 -20 -20 -20 -20 -20 -20 -20 -20
8 14 -16 9 21 25 16 17 18 -1 5 35 15 22 -15 -20 10 12 -16 -20 -20 -20 -20 -20 -20 -20 -5 -20 -20 -20 -20 -20 -20 -20 -20 -20 -20 -20 -20 -20 -20 -20 -20 -20 -20 -20 -20
10 10 -3 19 14 29 20 24 23 5 4 33 25 7 9 -19 -3 -15 -20 -20 -20 -20 -20 -20 -20 -12 -18 -20 -20 -20 -20 -20 -20 -20 -20 -20 -20 -20 -20 -20 -20 -20 -20 -20 -20 -20 -20
13 17 13 -20 18 24 30 31 25 -17 3 33 24 14 29 21 -20 -20 -12 -20 -10 -20 -20 -20 -20 -18 -20 -20 -20 -20 -20 -20 -20 -20 -20 -20 -20 -20 -20 -20 -20 -20 -20 -20 -20 -20 -20
16 19 14 3 11 25 31 31 29 -19 12 21 32 11 20 7 -1 -20 -20 -20 -20 -20 -20 -20 -20 -20 -20 -20 -20 -20 -12 -8 -20 -20 -20 -20 -20 -20 -20 -20 -20 -20 -20 -20 -20 -20 -20
17 15 20 11 -20 24 34 31 33 -16 20 10 36 -5 -20 -9 -20 2 -20 -20 -20 -20 -20 -20 -20 -20 -20 -20 -20 -20 -4 -20 -20 -20 -20 -20 -20 -20 -20 -20 -20 -20 -20 -20 -20 -20 -20
14 17 25 7 14 25 35 32 35 6 25 21 21 -20 -20 -19 -6 -9 -20 -20 -20 -20 -20 -20 -20 19 2 -10 9 7 1 -20 -20 -20 -20 -20 -20 -20 -20 -20 -20 -20 -20 -20 -20 -20 -20
18 26 25 13 12 27 36 29 33 -12 20 25 23 -20 -10 -1 8 -20 -20 -20 -20 -20 -20 -20 -19 10 7 2 2 11 -13 -20 -20 -20 -20 -20 -20 -20 -20 -20 -20 -20 -20 -20 -20 -20 -20
32 34 15 12 2 34 34 26 33 -4 -6 21 -19 -20 -11 9 6 -20 -20 -20 -9 -18 -20 -20 -20 1 11 -11 -20 -19 24 -20 -20 -20 -20 -20 -20 -20 -20 -20 -20 -20 -20 -20 -20 -20 -20
28 5 16 12 31 36 26 30 21 3 -4 24 -11 -20 -20 13 10 -18 -0 -20 -14 -9 -20 -20 -20 -20 8 11 -13 -20 -20 -20 -19 -20 -20 -20 -20 -20 -20 -20 -20 -20 -20 -20 -20 -20 -20
18 15 17 29 31 34 25 29 13 7 4 3 19 -20 5 24 23 14 13 -20 -18 -12 -20 -20 -20 -20 -13 -8 -19 -20 -20 -20 -11 -17 -20 -20 -14 -20 -20 -20 -20 -20 -20 -20 -20 -20 -20
12 -3 19 23 31 28 27 23 9 9 11 -4 23 -20 1 2 16 19 -20 9 -11 -20 -20 -20 -20 -20 -20 -20 -20 -20 -20 -20 -20 -15 -20 -20 -20 -20 -20 -20 -20 -20 -20 -20 -20 -20 -20
6 6 19 34 24 27 25 12 11 10 16 14 22 -10 12 -9 14 32 5 18 -20 -20 -20 -20 -20 -20 -20 -20 -20 -20 -20 -20 -20 -5 -5 -20 -20 -20 -20 -20 -20 -20 -20 -20 -20 -20 -20

GFSGBSN_prec_radar_054.txt.gz
Reflectivity
11 13 11 13 7 11 12 12 2 -16 -20 -20 -18 4 7 1 9 10 -10 -20 -20 -20 -20 -20 -20 -20 -20 -20 -20 -20 -20 -20 -20 -20 -20 -20 -20 -20 -20 -20 -20 -20 -20 -20 -20 -20 -20
15 1 12 9 11 5 8 10 11 7 -15 -20 -20 -20 -20 9 5 13 8 1 -19 -20 -20 -20 -20 -20 -20 -20 -20 -20 -20 -20 -20 -20 -20 -20 -20 -20 -20 -20 -20 -20 -20 -20 -20 -20 -20
-19 11 14 2 9 11 5 4 9 3 7 -18 -20 -20 -20 -20 4 -0 7 -3 -20 -20 -20 -20 -20 -20 -20 -20 -20 -20 -20 -20 -20 -20 -20 -20 -20 -20 -20 -20 -20 -20 -20 -20 -20 -20 -20
7 6 -6 16 12 5 8 12 8 4 7 8 0 -20 -20 -20 -20 -20 -6 -2 -20 -20 -20 -20 -20 -20 -20 -20 -20 -20 -20 -20 -20 -20 -20 -20 -20 -20 -20 -20 -20 -20 -20 -2 -14 -20 -20
-1 8 -6 -20 10 14 10 1 8 5 9 10 4 7 -20 -20 -20 -20 -16 -20 -20 -20 -20 -20 -20 -20 -20 -20 -20 -20 -20 -20 -20 -20 -20 -20 -20 -20 -20 -20 -20 -20 13 -17 -20 -20 -10
-20 -20 -13 -2 -20 -1 18 -13 10 9 2 10 11 11 -20 -20 -20 -0 -13 -20 -20 -20 -20 -20 -20 -20 -20 -20 -20 -20 -20 -20 -20 -20 -20 -20 -20 -20 -20 -20 -20 -20 -20 -20 15 -4 -20
13 7 -20 -20 -20 -20 9 14 -8 10 8 4 8 8 -13 -20 -20 -17 -3 -20 -20 -20 -20 -20 -20 -20 -20 -20 -20 -20 -20 -20 -20 -20 -20 -20 -20 -20 -20 -20 -20 -20 -20 -20 -20 -20 -20
-20 7 9 -13 -20 -20 -20 10 19 5 8 9 11 9 1 -11 -20 -14 -20 -20 -20 -20 -20 -20 -20 -20 -20 -20 -20 -20 -20 -20 -20 -20 -20 -20 -20 -20 -20 -20 -20 -20 -20 -20 -20 -20 -20
-20 -20 -18 -0 5 -20 -20 -20 0 15 8 11 9 13 10 -20 3 2 -20 -20 -20 -20 -20 -20 -20 -20 -19 -14 -20 -20 -20 -20 -20 -20 -20 -20 -20 -20 -20 -20 -20 -20 -20 -20 -20 -20 -20
7 -20 -20 -1 5 4 -20 -20 -20 -17 20 7 13 12 13 7 6 -20 -20 -20 -20 -20 -20 -20 -20 -20 -20 -19 -20 -20 -20 -20 -20 -20 -20 -20 -20 -20 -20 -20 -20 -20 -20 -20 -20 -20 -20
-20 -8 11 -18 -20 -20 -10 -20 -20 -20 -13 22 13 13 13 8 -14 -10 -20 -20 -20 -20 -20 -20 -20 -20 -20 -20 -16 -4 -20 -20 -20 -20 -20 -20 -20 -20 -20 -20 -20 -20 -20 -20 -20 -20 -20
-12 -9 -16 -2 -12 -20 -4 -20 -20 -20 -20 2 21 15 14 8 7 -20 -20 -20 -20 -20 -20 -20 -20 -20 -20 -20 -20 -20 -20 -20 -20 -20 -20 -20 -20 -20 -20 -20 -20 -20 -20 -20 -20 -20 -20
8 3 -5 -18 -20 -20 -12 -20 -20 -20 -20 1 11 17 18 5 -20 -20 -20 -1 -20 -20 -20 -20 -20 -20 -20 -20 -20 6 -14 -20 -20 -20 -20 -20 -20 -20 -20 -20 -20 -20 -20 -20 -20 -19 -20
1 3 7 5 -3 2 -20 -1 -20 -20 -20 -20 -20 2 12 16 -19 12 3 21 -20 -20 -20 -20 -20 -20 -20 -18 -1 -20 -20 -20 -20 -20 -20 -20 -20 -20 -20 -20 -20 -20 -20 -19 10 -18 -20
-5 -1 -1 9 10 9 8 -19 -20 -19 -20 -20 -6 -4 -10 21 -20 22 11 8 -20 -20 -20 -20 -20 -20 -20 -8 -10 -20 -20 -20 -20 -20 -20 -20 -20 -20 -20 -20 -20 -20 -20 -20 -20 -20 -20
14 13 6 -11 -12 14 11 10 -20 -15 -12 -20 15 20 4 11 -5 25 27 -20 -20 -20 -20 -20 -20 -20 -20 -18 15 8 -20 -20 -20 -20 -20 -20 -20 -20 -20 -20 -20 -20 -20 -20 -20 7 -11
11 11 14 13 1 9 13 9 17 4 12 17 21 25 10 -20 23 28 27 -20 -20 -20 -20 -20 -20 -20 -20 -20 -13 9 -4 1 -13 -20 -20 -20 -20 -20 -20 -20 -20 -20 -20 -20 -8 -20 -20
26 20 19 15 -10 12 10 14 19 17 24 2 14 21 21 -17 27 22 15 -20 -20 -20 -20 -20 -20 -20 -20 -20 -20 -20 -20 -12 -20 -20 -20 -20 -20 -20 -20 -20 -20 -20 -20 -20 -20 1 -20
6 -4 26 25 17 17 19 11 12 23 23 19 16 22 23 19 1 -6 9 -20 -20 -20 -20 -20 -20 -20 -20 -20 -20 -20 -20 2 -20 -20 -20 -20 -20 -20 -20 -20 -20 -20 -20 -20 -20 -20 -20
-7 5 13 16 -7 21 18 6 22 29 26 22 19 30 30 26 -20 -20 -3 13 -20 -20 -20 -20 -20 -20 -20 -20 -20 -20 -20 -15 -20 -20 -20 -20 -20 -20 -20 -20 -20 -20 -20 -20 -20 -20 -20
15 13 10 12 12 14 9 20 20 32 27 29 18 28 19 16 5 -20 -20 -20 2 -10 -20 -20 -20 -20 -20 -20 -18 4 8 -20 -20 -20 -20 -20 -20 -20 -20 -20 -20 -20 -20 -20 -20 -20 -20
11 11 16 15 14 16 12 15 22 37 29 36 25 13 17 4 -20 -20 -20 -20 -14 -10 -20 -20 -20 -20 -19 -20 -15 7 10 -20 -20 -20 -20 -20 -20 -20 -20 -20 -20 -20 -20 -20 -20 -20 -20
19 17 14 13 14 13 9 15 18 38 34 40 5 -12 13 -18 -8 9 -20 -20 -20 -19 -20 -20 -20 2 1 -12 13 -12 -6 4 -20 -20 -20 -20 -20 -20 -20 -20 -20 -20 -20 -20 -20 -20 -20
20 14 14 15 18 14 2 13 21 38 36 33 -20 11 17 12 18 -10 -20 -20 -20 -20 -20 -20 -20 -20 7 11 13 -7 2 -13 -2 -20 -20 -20 -20 -20 -20 -20 -13 -20 -20 -20 -20 -20 -20
17 -8 5 24 27 12 17 20 24 36 32 20 -16 -3 8 9 1 -2 -2 -20 -20 -20 -6 -20 -20 -20 3 16 7 -1 -16 30 -14 -20 -20 -20 -20 -20 -20 -20 -20 -20 -20 -20 -20 -20 -20
13 20 17 30 20 19 18 -4 38 33 28 12 -17 -20 9 -16 -1 -9 10 5 -20 -20 9 -20 -20 -20 -1 18 -2 -20 -20 -19 12 -20 -20 -20 -20 -20 -20 -20 -20 -15 -20 -20 -20 -20 -20
28 11 -8 18 18 19 13 2 32 30 33 12 -1 -20 -9 6 -20 -20 22 2 -20 -11 -20 -19 -20 -6 -17 -8 -9 -20 -20 -20 -0 4 -20 -20 -20 -20 -20 -17 -20 -18 -20 -20 -20 -20 -20
28 25 17 20 23 10 -14 27 24 32 36 7 13 20 18 15 5 15 18 20 -8 -9 -8 -20 13 -20 -20 -20 -20 -20 -20 -20 -20 -12 4 -17 -5 -20 -20 -20 -20 -11 -20 -20 -20 -20 -20
12 15 10 14 7 -20 23 27 25 32 20 -14 -20 -19 6 23 19 -20 -16 29 26 -9 -20 12 -20 -20 -20 -20 -20 -20 -19 -20 -18 -20 -20 -20 -5 -15 -20 -20 -20 -20 -20 -20 -20 -20 -20

GFSGBSN_prec_radar_057.txt.gz
Reflectivity
11 12 -1 3 4 5 2 1 -0 1 -8 -20 -20 -20 -20 -20 -20 -20 -20 3 -20 -20 -20 -20 -20 -20 -20 -20 -20 -20 -20 -20 -20 -20 -20 -20 -20 -20 -20 -20 -20 -20 -20 -20 -20 -20 -20
-15 -18 5 9 -16 -5 -20 6 1 -11 5 -3 -20 -20 -20 -20 -19 -20 -20 -20 -20 -20 -20 -20 -20 -20 -20 -20 -20 -20 -20 -20 -20 -20 -20 -20 -20 -20 -20 -20 -20 -20 -20 -20 -20 -20 -20
6 -16 -20 -20 9 9 -3 1 4 -3 0 9 -2 -12 -20 -20 -20 -20 -20 -20 -20 -20 -20 -20 -20 -20 -20 -20 -20 -20 -20 -20 -20 -20 -20 -20 -20 -20 -20 -20 -20 -20 -20 8 -5 -20 -20
-20 -20 -10 9 -15 -4 16 3 -15 1 2 -4 0 9 -20 -20 -20 -20 -20 -20 -20 -20 -20 -20 -20 -20 -20 -20 -20 -20 -20 -20 -20 -20 -20 -20 -20 -20 -20 -20 -20 -20 -20 2 34 1 -20
-20 -20 -20 -20 -20 -20 -19 -13 3 3 -0 -9 5 -4 -2 -20 -20 -20 -20 -20 -20 -20 -20 -20 -20 -20 -20 -20 -20 -20 -20 -20 -20 -20 -20 -20 -20 -20 -20 -20 -20 -20 -8 1 -2 -9 -20
-12 12 -10 -20 -20 -20 1 -14 -18 13 4 -16 5 8 -3 -19 -20 -20 -20 -20 -20 -20 -20 -20 -20 -20 -20 -20 -20 -20 -20 -20 -20 -20 -20 -20 -20 -20 -20 -20 -20 -20 1 -20 -20 22 -11
-19 -20 -6 12 5 -20 -20 -20 -20 -20 13 -3 -19 2 5 -16 -20 -20 -13 -20 -20 -20 -20 -20 -20 -20 -20 -20 -20 -20 -20 -20 -20 -20 -20 -20 -20 -20 -20 -20 -20 -20 -20 2 -15 16 -20
-20 -20 -20 -20 -9 14 -14 -20 -20 -20 -16 13 -2 7 5 3 -20 -20 -0 -20 -20 -20 -20 -20 -20 -20 -20 -20 -20 -20 -20 -20 -20 -20 -20 -20 -20 -20 -20 -20 -20 -20 -20 -20 -20 -20 -20
-20 -20 -20 -20 -20 -20 12 -17 -20 -20 -20 -10 3 -1 5 3 -18 -15 -20 -20 -20 -20 -20 -20 -20 -20 -20 -20 -20 -20 -20 -20 -20 -20 -20 -20 -20 -20 -20 -20 -20 -20 -20 -18 -15 9 -20
4 6 9 1 -20 -20 -20 -20 -20 -20 -20 -20 -1 4 7 6 -9 -20 -20 -20 -20 -20 -20 -20 -20 -20 -20 -20 -20 -20 -20 -1 -1 -20 -20 -20 -20 -20 -20 -20 -20 -20 -20 -20 -20 -20 -3
-6 -2 6 7 6 -20 -19 -20 -20 -20 -20 -20 -20 4 -9 2 -20 -20 -20 -20 -20 -10 -20 -20 -20 -20 -20 -20 -20 -20 -20 -20 -20 -20 -20 -20 -20 -20 -20 -20 -20 -20 -20 -20 -20 -20 -20
2 -0 2 7 11 0 -20 -20 -20 -20 -20 -20 -20 15 -8 -9 -18 -20 -18 -10 -15 -20 -20 -20 -20 -20 -20 -20 -20 -20 -20 -20 -17 -20 -20 -20 -20 -20 -20 -20 -20 -20 -20 -20 -20 -20 -20
-6 -3 -3 6 7 10 10 -20 -2 -20 -12 -20 -20 -2 20 -4 -15 -20 0 8 -20 -20 -20 -20 -20 -20 -20 -20 -20 -20 -20 -20 -3 -16 -20 -20 -20 -20 -20 -20 -20 -20 -20 -18 12 -20 -20
-0 -19 -6 -1 5 5 6 5 -20 -20 -20 -20 -20 -20 4 18 -20 -20 20 24 -20 -20 -20 -20 -20 -20 -20 -20 -20 -20 -20 -20 -4 9 -1 -20 -20 -20 -20 -20 -20 -20 -20 -18 17 15 -4
5 3 -14 -7 0 10 8 6 0 12 -20 -20 -15 -4 -10 18 6 -20 27 28 -20 -20 -20 -20 -20 -20 -20 -20 -20 -20 -20 -20 -20 3 -4 -20 -20 -20 -20 -20 -20 -20 -20 -17 -4 -20 -15
9 11 15 -7 -20 -4 10 11 7 8 4 -10 18 11 -17 -20 -5 18 25 23 -20 -20 -20 -20 -20 -20 -20 -20 -20 -20 -20 -20 -20 4 -20 -20 -20 -20 -20 -20 -20 -20 -1 -20 -20 16 14
15 11 15 16 9 5 4 11 15 13 6 20 -0 16 -20 -20 6 26 6 -16 -20 -20 -20 -20 -20 -20 -20 -20 -20 -20 -20 -20 -20 2 -1 -20 -20 -20 -20 -20 -20 -20 -20 -20 -9 -20 -0
16 16 17 12 12 -6 12 14 14 12 6 24 24 14 12 19 14 29 4 -20 -20 -20 -20 -20 -20 -20 -20 -20 -20 -20 -20 -20 -11 12 13 -20 -20 -20 -20 -20 -20 16 -9 -20 -20 -20 -20
18 15 1 -20 27 25 5 9 14 12 26 20 31 11 23 3 10 23 -20 -20 -20 -20 -20 -9 3 -20 -20 -20 -20 -20 -20 4 4 18 9 -10 -20 -20 -20 -20 -20 -20 -20 -19 -14 -8 12
-7 -18 -20 -20 -20 18 33 -6 21 15 23 23 32 20 20 22 -7 -4 -20 -20 -20 -20 -20 -1 16 -18 -20 -20 -20 -20 -20 -20 -14 9 11 -5 -20 -20 -20 -20 -20 -20 -20 -20 -19 -20 -20
7 8 7 9 -0 -20 14 35 21 20 28 31 35 25 8 7 10 -20 -20 -20 -20 -20 -20 -20 14 -7 -20 -20 -20 -20 -4 -4 -12 9 7 -7 -20 -20 -20 -20 -20 -20 -20 -20 -20 -20 -20
4 9 10 12 10 11 -20 34 36 30 30 35 38 14 6 -20 5 7 4 -20 -20 -20 -20 -20 -16 17 3 -20 -20 2 -20 -6 -4 -0 -2 -20 -20 -20 -20 -20 -20 -20 -20 -20 -20 -20 -20
5 9 15 8 15 14 14 1 7 21 37 39 39 1 -2 -18 12 11 -1 -20 -20 -20 -20 -20 -20 -7 18 -10 25 -5 -5 5 1 12 1 -20 -20 -20 -20 -20 -20 -20 -20 -20 -20 -20 -20
13 -7 18 26 17 15 15 13 -6 -19 37 38 34 5 23 8 22 -19 -20 -20 -20 -20 -20 -20 -20 -20 25 4 9 -4 6 -0 12 0 10 -4 -20 -20 -20 -20 -2 -20 -20 -20 -20 -20 -20
-20 -4 -3 21 23 27 16 16 17 12 6 40 22 10 16 20 1 -5 -20 -20 -20 -20 9 -13 -20 -20 9 6 7 -7 -7 8 4 23 -17 1 -20 22 16 -20 -20 -20 -20 -20 -20 -20 -20
6 13 15 17 18 27 16 19 26 16 2 39 30 19 15 17 -15 -20 -1 -2 -20 -20 -4 8 -19 -20 3 33 -12 10 -17 -20 1 16 16 4 -9 17 5 -20 -14 -20 -20 -20 -20 -20 -20
1 -1 19 24 16 19 16 18 18 21 23 36 34 17 17 14 -15 19 21 -18 -20 -20 -1 -9 -6 16 -20 0 -10 -20 -20 -20 -20 -7 7 29 8 5 -20 -20 -20 -20 -18 -20 -20 -20 -20
22 21 13 -20 14 16 16 16 17 14 11 35 35 -11 -20 6 15 9 -11 3 -1 -12 18 -16 -1 22 14 18 4 -20 -20 -20 -20 -20 3 19 3 -20 9 -2 -14 -20 -8 -10 -20 -20 -20
-15 -16 -6 5 5 16 19 16 11 10 17 29 28 -6 10 25 17 9 28 31 7 4 -20 -19 24 -20 -20 -20 -8 -15 12 3 -20 -7 0 2 -14 24 -16 -18 -20 -14 -20 -20 -20 -20 -20

GFSGBSN_prec_radar_060.txt.gz
Reflectivity
5 -20 -20 -20 7 3 4 -0 2 -18 4 -4 -19 -20 -20 -20 -20 -20 -20 -20 -20 -20 -20 -20 -20 -20 -20 -20 -20 -20 -20 -20 -20 -20 -20 -20 -20 -20 -20 -20 -20 -20 -20 -20 -20 -20 -20
14 1 -20 -20 -15 -5 9 -11 0 2 -16 -20 -20 2 -20 -20 -20 -20 -20 -20 -20 -20 -20 -20 -20 -20 -20 -20 -20 -20 -20 -20 -20 -20 -20 -20 -20 -20 -20 -20 -20 -20 -20 -20 -3 -0 -20
12 12 6 2 -14 -20 -18 6 12 5 -14 -20 -20 -12 -20 -19 -20 -20 -20 -20 -20 -20 -20 -20 -20 -20 -20 -20 -20 -20 -20 -20 -20 -20 -20 -20 -20 -20 -20 -20 -20 -20 -20 -20 -20 5 -20
-10 5 10 -15 -20 -17 -20 -20 -2 7 -5 -6 -6 4 -20 -20 -20 -20 -20 -20 -20 -20 -20 -20 -20 -20 -20 -20 -20 -20 -20 -20 -20 -20 -20 -20 -20 -20 -20 -20 -20 -20 -20 -20 -20 -20 -20
-20 12 12 4 -6 -3 -20 -19 -20 -20 -20 -7 -2 -15 3 -20 -20 -20 -20 -20 -20 -20 -20 -20 -20 -20 -20 -20 -20 -20 -20 -20 -20 -20 -20 -20 -20 -20 -20 -20 -20 -19 -20 -20 -20 -20 -20
-1 -20 -20 -14 11 -2 -20 -20 -20 -20 -20 -17 -3 -20 -19 -9 -20 -20 -20 -20 -20 -20 -20 -20 -20 -20 -20 -20 -20 -20 -20 -20 -20 -20 -20 -20 -20 -20 -20 -20 -20 -9 -14 -20 14 -16 -20
2 1 2 -14 -20 -20 13 10 -20 -20 -20 -20 -17 -1 -3 -20 -4 -20 -20 -20 -20 -20 -20 -20 -20 -20 -20 -20 -20 -20 -20 -20 -20 -20 -20 -20 -20 -20 -20 -20 -20 -20 -20 -15 -16 -20 -20
-19 -20 -20 -20 -20 -20 -20 6 13 -20 -20 -20 -19 2 4 1 -3 -20 -20 -20 -20 -20 -20 -20 -20 -20 -20 -20 -20 -20 -20 -20 -20 -20 -20 -20 -20 -20 -20 -20 -20 -20 -20 -20 -16 -16 -20
7 7 9 -6 -20 -20 -20 -20 -20 14 -20 -20 -20 -18 4 -20 -10 -20 -20 -20 -20 -20 -20 -20 -20 -20 -20 -20 -20 -20 -20 -20 -20 -20 -20 -20 -20 -20 -20 -20 -20 -20 -20 -20 -1 1 -18
-2 -20 -15 -7 -20 -15 -20 -20 -20 -20 -16 -20 -20 -20 -17 2 -20 -20 -20 -20 -20 -20 -20 -20 -14 -20 -20 -20 -20 -20 -20 -20 -20 -20 -20 -20 -17 -20 -20 -20 -20 -20 -3 -20 -20 -20 -18
7 7 6 9 8 4 5 -12 -20 -20 -20 -20 -20 -20 -17 8 -20 -20 -20 -20 -20 -8 -20 -20 -20 -20 -20 -20 -20 -20 -20 -20 -20 -20 -20 -18 -20 -20 -20 -20 -20 -20 -20 -20 -20 -20 -20
0 6 6 8 8 4 -10 -20 -20 -20 -20 -20 -20 -20 -20 -3 -14 -20 -20 -20 -4 -16 -20 -20 -20 -20 -20 -20 -20 -20 -20 -20 -20 -20 -20 -20 -20 -18 -20 -20 -20 -20 -20 -20 -20 -20 -20
-2 3 1 -2 5 9 7 11 -9 -13 -20 -20 -20 -20 -15 -20 -11 -20 -20 -4 -20 -20 -20 -20 -20 -20 -20 -20 -20 -20 -20 -20 -20 -20 -20 -20 -20 -10 -20 -20 -20 -20 -20 -20 -8 -2 -20
6 -3 1 -6 -1 4 10 10 11 10 -1 2 -20 -20 -20 -20 -20 -14 -0 5 -6 -20 -20 -20 -20 -20 -20 -20 -20 -20 -20 -20 -20 -20 -20 -20 -20 -9 7 -20 -20 -20 -20 -20 3 2 22
-20 -14 -7 5 8 2 5 11 10 9 7 3 -4 10 15 -18 -20 20 16 23 -20 -20 -20 -20 -20 -20 -20 -20 -20 -20 -20 -20 -20 -20 -20 -20 -20 6 6 -20 -20 -20 -5 -20 -13 -16 -5
0 0 -4 -10 5 7 3 3 8 10 10 7 15 12 15 -20 -20 21 19 9 -20 -20 -20 -20 -20 -20 -20 -20 -20 -20 -20 -20 -20 -20 -20 -11 -15 -0 -7 -20 -20 -20 -20 10 -20 19 20
6 4 5 8 10 13 8 10 10 4 19 14 20 20 -10 14 25 23 25 -11 -20 -20 -20 -20 -20 -20 -20 2 -7 -20 -20 -20 -20 -20 -17 -20 6 -17 3 -20 -20 -20 -20 -20 -20 -20 -20
-3 7 1 8 12 12 12 12 18 -2 17 22 24 27 -4 -16 14 25 -6 -20 -20 -20 -20 -20 -20 -20 -20 -19 19 -14 -20 -20 -20 -20 -20 -20 -10 -18 16 -14 -20 -20 -20 -20 -20 -20 -20
11 13 17 8 13 8 20 21 25 22 22 27 29 22 19 11 4 8 -9 -20 -20 -20 -20 -20 -20 -20 -20 -11 11 7 -19 -20 13 -19 -20 -6 -2 5 1 -19 -20 -20 -14 -20 -20 -20 -19
17 8 -20 -20 22 15 -16 -4 27 25 28 32 32 27 21 27 -16 -10 -20 -20 -20 -20 -20 -20 -20 -20 -20 -14 -15 -2 14 -7 -18 -20 -20 14 -4 -20 -20 -10 4 -18 -20 -20 -5 8 -20
6 10 -20 -20 -18 0 -20 -20 32 24 26 31 36 31 1 24 0 -20 -20 -20 -20 -20 -20 -20 -20 -20 -20 -20 6 -1 13 14 -7 -20 -18 -20 -17 -20 -20 -18 4 -16 -20 -20 -12 5 -3
-20 -6 9 -20 -20 3 -20 2 -19 32 26 29 36 21 4 -20 -15 5 -20 -20 -20 -20 -20 -20 -20 -20 -20 -20 8 32 15 24 15 -20 -20 -16 -20 -20 -20 -17 9 13 -20 -8 -20 -20 -20
-11 6 6 8 11 2 -20 2 6 25 35 38 36 7 15 -18 2 12 -4 -20 -20 -20 -20 -20 -20 -20 -20 -20 11 18 14 22 8 12 -20 -17 -20 -20 -20 -20 9 -8 -18 -18 -6 -6 -20
-12 13 16 13 6 14 12 -15 4 -18 35 36 37 6 26 30 -10 12 -20 -20 -20 -20 -20 -20 -20 -20 -20 -18 12 16 13 19 30 -20 -12 -15 -16 -20 -20 -12 12 -20 -20 -20 -20 -20 -20
13 12 11 12 15 16 21 -3 3 -20 7 37 38 19 7 22 6 -6 -20 -20 -20 -20 -20 -20 -20 -20 -20 -20 -20 23 29 32 33 -9 -4 -8 -18 -15 14 -15 -16 -19 -20 -20 -20 -20 -20
10 9 11 8 10 4 17 22 -7 6 -10 39 35 28 13 2 15 -20 -8 -20 -12 -2 -20 -20 -20 -20 -5 11 27 21 23 15 26 -18 -18 17 -12 17 20 -5 -3 -20 -17 -20 -20 -20 -20
14 16 10 -15 -1 12 -5 14 28 14 14 31 39 33 29 10 -3 13 2 5 -7 -20 -17 -20 -20 8 11 26 2 -4 10 13 -1 2 -8 13 27 -3 8 -5 -16 -17 12 0 -17 -19 -20
6 5 -1 0 -7 16 7 23 35 22 32 24 3 28 30 23 -11 28 19 31 -0 -20 -10 -20 -11 17 39 28 21 -3 -20 -12 -12 -20 -16 2 13 24 -2 16 6 -4 17 3 -11 -1 -20
-14 -20 8 26 15 24 21 16 35 23 34 26 12 7 27 19 -11 26 3 -8 -14 -17 -19 -20 -20 -20 10 38 8 -7 -20 -20 -20 -13 -11 -19 -20 -20 -5 6 -20 13 26 9 6 -7 -20